Time,TemperatureF,DewpointF,PressureIn,WindDirection,WindDirectionDegrees,WindSpeedMPH,WindSpeedGustMPH,Humidity,HourlyPrecipIn,Conditions,Clouds,dailyrainin,SoftwareType,DateUTC
2013-04-27 00:00:00,56.0,43.6,30.26,SSE,152,0.0,1.0,63,0.00,,---,0.00,VWS V14.01,2013-04-27 04:00:00,
2013-04-27 00:01:00,56.0,43.6,30.26,SSE,152,0.0,0.0,63,0.00,,---,0.00,VWS V14.01,2013-04-27 04:01:00,
2013-04-27 00:02:00,56.0,43.6,30.26,SSE,152,0.0,0.0,63,0.00,,---,0.00,VWS V14.01,2013-04-27 04:02:00,
2013-04-27 00:03:00,56.2,43.8,30.26,SSE,152,0.0,0.0,63,0.00,,---,0.00,VWS V14.01,2013-04-27 04:03:00,
2013-04-27 00:04:00,56.2,43.8,30.26,SSE,152,0.0,0.0,63,0.00,,---,0.00,VWS V14.01,2013-04-27 04:04:00,
2013-04-27 00:05:00,56.2,43.4,30.26,SSE,152,0.0,0.0,62,0.00,,---,0.00,VWS V14.01,2013-04-27 04:05:00,
2013-04-27 00:06:00,56.2,43.4,30.26,SSE,152,0.0,0.0,62,0.00,,---,0.00,VWS V14.01,2013-04-27 04:06:00,
2013-04-27 00:07:00,56.2,43.0,30.26,SSE,152,0.0,0.0,61,0.00,,---,0.00,VWS V14.01,2013-04-27 04:07:00,
2013-04-27 00:08:00,56.3,43.0,30.26,SSE,152,0.0,0.0,61,0.00,,---,0.00,VWS V14.01,2013-04-27 04:08:00,
2013-04-27 00:09:00,56.3,43.5,30.26,SSE,152,0.0,0.0,62,0.00,,---,0.00,VWS V14.01,2013-04-27 04:09:00,
2013-04-27 00:10:00,56.3,43.5,30.26,SSE,152,0.0,0.0,62,0.00,,---,0.00,VWS V14.01,2013-04-27 04:10:00,
2013-04-27 00:11:00,56.3,43.5,30.26,SSE,152,0.0,0.0,62,0.00,,---,0.00,VWS V14.01,2013-04-27 04:11:00,
2013-04-27 00:12:00,56.3,43.5,30.26,SSE,152,0.0,0.0,62,0.00,,---,0.00,VWS V14.01,2013-04-27 04:12:00,
2013-04-27 00:13:00,56.5,44.1,30.26,SSE,152,0.0,0.0,63,0.00,,---,0.00,VWS V14.01,2013-04-27 04:13:00,
2013-04-27 00:14:00,56.5,44.1,30.26,SSE,152,0.0,0.0,63,0.00,,---,0.00,VWS V14.01,2013-04-27 04:14:00,
2013-04-27 00:15:00,56.5,44.1,30.26,SSE,152,0.0,0.0,63,0.00,,---,0.00,VWS V14.01,2013-04-27 04:15:00,
2013-04-27 00:16:00,56.5,44.1,30.26,SSE,152,0.0,0.0,63,0.00,,---,0.00,VWS V14.01,2013-04-27 04:16:00,
2013-04-27 00:17:00,56.5,44.1,30.26,SSE,152,0.0,0.0,63,0.00,,---,0.00,VWS V14.01,2013-04-27 04:17:00,
2013-04-27 00:18:00,56.5,44.1,30.26,SSE,152,0.0,0.0,63,0.00,,---,0.00,VWS V14.01,2013-04-27 04:18:00,
2013-04-27 00:19:00,56.5,44.1,30.26,SSE,152,0.0,0.0,63,0.00,,---,0.00,VWS V14.01,2013-04-27 04:19:00,
2013-04-27 00:20:00,56.6,44.2,30.26,SSE,152,0.0,0.0,63,0.00,,---,0.00,VWS V14.01,2013-04-27 04:20:00,
2013-04-27 00:21:00,56.6,44.2,30.26,SSE,152,0.0,0.0,63,0.00,,---,0.00,VWS V14.01,2013-04-27 04:21:00,
2013-04-27 00:22:00,56.6,45.4,30.26,SSE,152,0.0,0.0,66,0.00,,---,0.00,VWS V14.01,2013-04-27 04:22:00,
2013-04-27 00:23:00,56.6,45.4,30.26,SSE,152,0.0,1.0,66,0.00,,---,0.00,VWS V14.01,2013-04-27 04:23:00,
2013-04-27 00:24:00,56.6,45.8,30.26,SSE,152,0.0,1.0,67,0.00,,---,0.00,VWS V14.01,2013-04-27 04:24:00,
2013-04-27 00:25:00,56.6,45.8,30.26,SSE,152,0.0,1.0,67,0.00,,---,0.00,VWS V14.01,2013-04-27 04:25:00,
2013-04-27 00:26:00,56.6,46.2,30.26,SSE,152,0.0,1.0,68,0.00,,---,0.00,VWS V14.01,2013-04-27 04:26:00,
2013-04-27 00:27:00,56.7,46.7,30.26,SSE,152,0.0,1.0,69,0.00,,---,0.00,VWS V14.01,2013-04-27 04:27:00,
2013-04-27 00:28:00,56.6,46.6,30.26,SSE,152,0.0,1.0,69,0.00,,---,0.00,VWS V14.01,2013-04-27 04:28:00,
2013-04-27 00:29:00,56.6,46.6,30.26,SSE,155,0.0,1.0,69,0.00,,---,0.00,VWS V14.01,2013-04-27 04:29:00,
2013-04-27 00:30:00,56.6,46.9,30.26,SSE,155,0.0,1.0,70,0.00,,---,0.00,VWS V14.01,2013-04-27 04:30:00,
2013-04-27 00:31:00,56.6,46.9,30.26,SSE,155,0.0,0.0,70,0.00,,---,0.00,VWS V14.01,2013-04-27 04:31:00,
2013-04-27 00:32:00,56.5,46.8,30.26,SSE,155,0.0,0.0,70,0.00,,---,0.00,VWS V14.01,2013-04-27 04:32:00,
2013-04-27 00:33:00,56.5,46.8,30.26,SSE,155,0.0,0.0,70,0.00,,---,0.00,VWS V14.01,2013-04-27 04:33:00,
2013-04-27 00:34:00,56.5,47.6,30.26,SSE,155,0.0,0.0,72,0.00,,---,0.00,VWS V14.01,2013-04-27 04:34:00,
2013-04-27 00:35:00,56.5,47.6,30.26,SSE,155,0.0,0.0,72,0.00,,---,0.00,VWS V14.01,2013-04-27 04:35:00,
2013-04-27 00:36:00,56.5,47.6,30.26,SSE,155,0.0,0.0,72,0.00,,---,0.00,VWS V14.01,2013-04-27 04:36:00,
2013-04-27 00:37:00,56.5,47.6,30.26,SSE,155,0.0,0.0,72,0.00,,---,0.00,VWS V14.01,2013-04-27 04:37:00,
2013-04-27 00:38:00,56.3,47.4,30.26,SSE,155,0.0,0.0,72,0.00,,---,0.00,VWS V14.01,2013-04-27 04:38:00,
2013-04-27 00:39:00,56.3,47.8,30.26,SSE,155,0.0,0.0,73,0.00,,---,0.00,VWS V14.01,2013-04-27 04:39:00,
2013-04-27 00:40:00,56.3,47.8,30.26,SSE,155,0.0,0.0,73,0.01,,---,0.01,VWS V14.01,2013-04-27 04:40:00,
2013-04-27 00:41:00,56.3,47.8,30.26,SSE,155,0.0,0.0,73,0.01,,---,0.01,VWS V14.01,2013-04-27 04:41:00,
2013-04-27 00:42:00,56.3,47.8,30.26,SSE,155,0.0,0.0,73,0.01,,---,0.01,VWS V14.01,2013-04-27 04:42:00,
2013-04-27 00:43:00,56.3,47.8,30.26,South,183,2.0,2.0,73,0.01,,---,0.01,VWS V14.01,2013-04-27 04:43:00,
2013-04-27 00:44:00,56.2,48.4,30.26,South,183,0.0,2.0,75,0.01,,---,0.01,VWS V14.01,2013-04-27 04:44:00,
2013-04-27 00:45:00,56.2,48.4,30.27,South,185,0.0,2.0,75,0.01,,---,0.01,VWS V14.01,2013-04-27 04:45:00,
2013-04-27 00:46:00,56.0,48.2,30.27,South,190,0.0,2.0,75,0.01,,---,0.01,VWS V14.01,2013-04-27 04:46:00,
2013-04-27 00:47:00,56.0,48.2,30.27,South,190,0.0,2.0,75,0.01,,---,0.01,VWS V14.01,2013-04-27 04:47:00,
2013-04-27 00:48:00,55.9,48.1,30.27,South,190,0.0,2.0,75,0.01,,---,0.01,VWS V14.01,2013-04-27 04:48:00,
2013-04-27 00:49:00,55.9,48.5,30.27,South,190,0.0,2.0,76,0.01,,---,0.01,VWS V14.01,2013-04-27 04:49:00,
2013-04-27 00:50:00,55.9,48.5,30.27,South,190,0.0,2.0,76,0.01,,---,0.01,VWS V14.01,2013-04-27 04:50:00,
2013-04-27 00:51:00,55.7,48.3,30.27,South,190,0.0,0.0,76,0.01,,---,0.01,VWS V14.01,2013-04-27 04:51:00,
2013-04-27 00:52:00,55.7,48.3,30.27,South,190,0.0,0.0,76,0.01,,---,0.01,VWS V14.01,2013-04-27 04:52:00,
2013-04-27 00:53:00,55.7,48.6,30.27,SSW,194,0.0,1.0,77,0.01,,---,0.01,VWS V14.01,2013-04-27 04:53:00,
2013-04-27 00:54:00,55.6,48.9,30.27,SSW,194,0.0,1.0,78,0.01,,---,0.01,VWS V14.01,2013-04-27 04:54:00,
2013-04-27 00:55:00,55.6,48.9,30.27,SSW,194,0.0,1.0,78,0.01,,---,0.01,VWS V14.01,2013-04-27 04:55:00,
2013-04-27 00:56:00,55.6,48.9,30.27,SSW,202,0.0,1.0,78,0.01,,---,0.01,VWS V14.01,2013-04-27 04:56:00,
2013-04-27 00:57:00,55.4,48.7,30.27,SSW,202,0.0,1.0,78,0.01,,---,0.01,VWS V14.01,2013-04-27 04:57:00,
2013-04-27 00:58:00,55.3,48.6,30.27,SSW,202,0.0,1.0,78,0.01,,---,0.01,VWS V14.01,2013-04-27 04:58:00,
2013-04-27 00:59:00,55.3,48.6,30.27,SSW,202,0.0,1.0,78,0.01,,---,0.01,VWS V14.01,2013-04-27 04:59:00,
2013-04-27 01:00:00,55.3,48.6,30.27,SSW,202,0.0,1.0,78,0.01,,---,0.01,VWS V14.01,2013-04-27 05:00:00,
2013-04-27 01:01:00,55.1,48.7,30.27,SSW,202,0.0,0.0,79,0.01,,---,0.01,VWS V14.01,2013-04-27 05:01:00,
2013-04-27 01:02:00,55.1,48.7,30.27,SSW,202,0.0,0.0,79,0.01,,---,0.01,VWS V14.01,2013-04-27 05:02:00,
2013-04-27 01:03:00,55.1,48.7,30.27,SSW,202,0.0,0.0,79,0.01,,---,0.01,VWS V14.01,2013-04-27 05:03:00,
2013-04-27 01:04:00,55.0,48.6,30.27,SSW,202,0.0,0.0,79,0.01,,---,0.01,VWS V14.01,2013-04-27 05:04:00,
2013-04-27 01:05:00,55.0,48.6,30.27,SSW,202,0.0,0.0,79,0.01,,---,0.01,VWS V14.01,2013-04-27 05:05:00,
2013-04-27 01:06:00,54.8,48.4,30.27,SSW,202,0.0,0.0,79,0.01,,---,0.01,VWS V14.01,2013-04-27 05:06:00,
2013-04-27 01:07:00,54.7,48.3,30.27,SSW,202,0.0,0.0,79,0.01,,---,0.01,VWS V14.01,2013-04-27 05:07:00,
2013-04-27 01:08:00,54.7,48.3,30.27,SSW,204,0.0,0.0,79,0.01,,---,0.01,VWS V14.01,2013-04-27 05:08:00,
2013-04-27 01:09:00,54.5,48.5,30.27,SSW,204,0.0,1.0,80,0.01,,---,0.01,VWS V14.01,2013-04-27 05:09:00,
2013-04-27 01:10:00,54.5,48.5,30.27,SSW,204,0.0,1.0,80,0.01,,---,0.01,VWS V14.01,2013-04-27 05:10:00,
2013-04-27 01:11:00,54.4,48.4,30.27,SSW,206,0.0,0.0,80,0.01,,---,0.01,VWS V14.01,2013-04-27 05:11:00,
2013-04-27 01:12:00,54.2,48.2,30.27,SSW,209,1.0,1.0,80,0.01,,---,0.01,VWS V14.01,2013-04-27 05:12:00,
2013-04-27 01:13:00,54.2,48.2,30.27,SSW,210,2.0,3.0,80,0.01,,---,0.01,VWS V14.01,2013-04-27 05:13:00,
2013-04-27 01:14:00,54.1,48.4,30.27,SSW,210,2.0,3.0,81,0.01,,---,0.01,VWS V14.01,2013-04-27 05:14:00,
2013-04-27 01:15:00,53.9,48.2,30.28,SSW,210,0.0,3.0,81,0.01,,---,0.01,VWS V14.01,2013-04-27 05:15:00,
2013-04-27 01:16:00,53.9,48.2,30.28,SSW,210,0.0,3.0,81,0.01,,---,0.01,VWS V14.01,2013-04-27 05:16:00,
2013-04-27 01:17:00,53.8,48.4,30.28,SSW,210,0.0,3.0,82,0.01,,---,0.01,VWS V14.01,2013-04-27 05:17:00,
2013-04-27 01:18:00,53.8,48.4,30.28,SSW,210,0.0,3.0,82,0.01,,---,0.01,VWS V14.01,2013-04-27 05:18:00,
2013-04-27 01:19:00,53.8,48.4,30.28,SSW,210,0.0,3.0,82,0.01,,---,0.01,VWS V14.01,2013-04-27 05:19:00,
2013-04-27 01:20:00,53.6,48.2,30.28,SSW,210,0.0,3.0,82,0.01,,---,0.01,VWS V14.01,2013-04-27 05:20:00,
2013-04-27 01:21:00,53.6,48.2,30.28,SSW,210,0.0,0.0,82,0.01,,---,0.01,VWS V14.01,2013-04-27 05:21:00,
2013-04-27 01:22:00,53.5,48.2,30.28,SSW,210,0.0,0.0,82,0.01,,---,0.01,VWS V14.01,2013-04-27 05:22:00,
2013-04-27 01:23:00,53.5,48.2,30.28,SSW,210,0.0,0.0,82,0.01,,---,0.01,VWS V14.01,2013-04-27 05:23:00,
2013-04-27 01:24:00,53.5,48.2,30.28,SSW,210,0.0,0.0,82,0.01,,---,0.01,VWS V14.01,2013-04-27 05:24:00,
2013-04-27 01:25:00,53.3,48.0,30.28,SSW,210,0.0,0.0,82,0.01,,---,0.01,VWS V14.01,2013-04-27 05:25:00,
2013-04-27 01:26:00,53.3,48.3,30.28,SSW,210,0.0,0.0,83,0.01,,---,0.01,VWS V14.01,2013-04-27 05:26:00,
2013-04-27 01:27:00,53.3,48.3,30.28,SSW,210,0.0,0.0,83,0.01,,---,0.01,VWS V14.01,2013-04-27 05:27:00,
2013-04-27 01:28:00,53.2,48.2,30.28,SSW,210,0.0,0.0,83,0.01,,---,0.01,VWS V14.01,2013-04-27 05:28:00,
2013-04-27 01:29:00,53.2,48.5,30.28,SSW,210,0.0,0.0,84,0.01,,---,0.01,VWS V14.01,2013-04-27 05:29:00,
2013-04-27 01:30:00,53.1,48.4,30.28,SSW,210,0.0,0.0,84,0.01,,---,0.01,VWS V14.01,2013-04-27 05:30:00,
2013-04-27 01:31:00,53.1,48.4,30.28,SSW,210,0.0,0.0,84,0.01,,---,0.01,VWS V14.01,2013-04-27 05:31:00,
2013-04-27 01:32:00,52.9,48.2,30.28,SSW,210,0.0,0.0,84,0.01,,---,0.01,VWS V14.01,2013-04-27 05:32:00,
2013-04-27 01:33:00,52.9,48.2,30.28,SSW,210,0.0,0.0,84,0.01,,---,0.01,VWS V14.01,2013-04-27 05:33:00,
2013-04-27 01:34:00,52.9,48.2,30.28,SSW,210,0.0,0.0,84,0.01,,---,0.01,VWS V14.01,2013-04-27 05:34:00,
2013-04-27 01:35:00,52.8,48.1,30.28,SSW,210,0.0,0.0,84,0.01,,---,0.01,VWS V14.01,2013-04-27 05:35:00,
2013-04-27 01:36:00,52.8,48.4,30.28,SSW,210,0.0,0.0,85,0.01,,---,0.01,VWS V14.01,2013-04-27 05:36:00,
2013-04-27 01:37:00,52.8,48.4,30.28,SSW,210,0.0,0.0,85,0.01,,---,0.01,VWS V14.01,2013-04-27 05:37:00,
2013-04-27 01:38:00,52.6,48.2,30.28,SSW,210,0.0,0.0,85,0.01,,---,0.01,VWS V14.01,2013-04-27 05:38:00,
2013-04-27 01:39:00,52.6,48.2,30.28,SSW,210,0.0,0.0,85,0.01,,---,0.01,VWS V14.01,2013-04-27 05:39:00,
2013-04-27 01:40:00,52.6,48.2,30.28,SSW,210,0.0,0.0,85,0.01,,---,0.01,VWS V14.01,2013-04-27 05:40:00,
2013-04-27 01:41:00,52.6,48.2,30.28,SSW,210,0.0,0.0,85,0.00,,---,0.01,VWS V14.01,2013-04-27 05:41:00,
2013-04-27 01:42:00,52.5,48.1,30.28,SSW,210,0.0,0.0,85,0.00,,---,0.01,VWS V14.01,2013-04-27 05:42:00,
2013-04-27 01:43:00,52.5,48.1,30.28,SSW,210,0.0,0.0,85,0.00,,---,0.01,VWS V14.01,2013-04-27 05:43:00,
2013-04-27 01:44:00,52.5,48.1,30.28,SSW,210,0.0,0.0,85,0.00,,---,0.01,VWS V14.01,2013-04-27 05:44:00,
2013-04-27 01:45:00,52.5,48.1,30.28,SSW,210,0.0,0.0,85,0.01,,---,0.02,VWS V14.01,2013-04-27 05:45:00,
2013-04-27 01:46:00,52.5,48.1,30.28,SSW,210,0.0,0.0,85,0.01,,---,0.02,VWS V14.01,2013-04-27 05:46:00,
2013-04-27 01:47:00,52.5,48.4,30.28,SSW,210,0.0,0.0,86,0.01,,---,0.02,VWS V14.01,2013-04-27 05:47:00,
2013-04-27 01:48:00,52.3,48.2,30.28,SSW,210,0.0,0.0,86,0.01,,---,0.02,VWS V14.01,2013-04-27 05:48:00,
2013-04-27 01:49:00,52.3,48.2,30.28,SSW,210,0.0,0.0,86,0.01,,---,0.02,VWS V14.01,2013-04-27 05:49:00,
2013-04-27 01:50:00,52.3,48.2,30.28,SSW,210,0.0,0.0,86,0.01,,---,0.02,VWS V14.01,2013-04-27 05:50:00,
2013-04-27 01:51:00,52.3,48.2,30.28,SSW,210,0.0,0.0,86,0.01,,---,0.02,VWS V14.01,2013-04-27 05:51:00,
2013-04-27 01:52:00,52.3,48.2,30.28,SSW,210,0.0,0.0,86,0.01,,---,0.02,VWS V14.01,2013-04-27 05:52:00,
2013-04-27 01:53:00,52.3,48.2,30.28,SSW,210,0.0,0.0,86,0.01,,---,0.02,VWS V14.01,2013-04-27 05:53:00,
2013-04-27 01:54:00,52.3,48.2,30.28,SSW,210,0.0,0.0,86,0.01,,---,0.02,VWS V14.01,2013-04-27 05:54:00,
2013-04-27 01:55:00,52.2,48.2,30.28,SSW,210,0.0,0.0,86,0.01,,---,0.02,VWS V14.01,2013-04-27 05:55:00,
2013-04-27 01:56:00,52.2,48.2,30.28,SSW,210,0.0,0.0,86,0.01,,---,0.02,VWS V14.01,2013-04-27 05:56:00,
2013-04-27 01:57:00,52.2,48.2,30.28,SSW,210,0.0,0.0,86,0.01,,---,0.02,VWS V14.01,2013-04-27 05:57:00,
2013-04-27 01:58:00,52.2,48.2,30.28,SSW,210,0.0,0.0,86,0.01,,---,0.02,VWS V14.01,2013-04-27 05:58:00,
2013-04-27 01:59:00,52.2,48.2,30.28,SSW,210,0.0,0.0,86,0.01,,---,0.02,VWS V14.01,2013-04-27 05:59:00,
2013-04-27 02:00:00,52.0,48.0,30.29,SSW,210,0.0,0.0,86,0.01,,---,0.02,VWS V14.01,2013-04-27 06:00:00,
2013-04-27 02:01:00,52.0,48.0,30.29,SSW,210,0.0,0.0,86,0.01,,---,0.02,VWS V14.01,2013-04-27 06:01:00,
2013-04-27 02:02:00,52.0,48.0,30.29,SSW,210,0.0,0.0,86,0.01,,---,0.02,VWS V14.01,2013-04-27 06:02:00,
2013-04-27 02:03:00,52.0,48.0,30.29,SSW,210,0.0,0.0,86,0.01,,---,0.02,VWS V14.01,2013-04-27 06:03:00,
2013-04-27 02:04:00,52.0,48.3,30.29,SSW,210,0.0,0.0,87,0.01,,---,0.02,VWS V14.01,2013-04-27 06:04:00,
2013-04-27 02:05:00,52.0,48.3,30.29,SSW,210,0.0,0.0,87,0.01,,---,0.02,VWS V14.01,2013-04-27 06:05:00,
2013-04-27 02:06:00,52.0,48.3,30.29,SSW,210,0.0,0.0,87,0.01,,---,0.02,VWS V14.01,2013-04-27 06:06:00,
2013-04-27 02:07:00,51.9,48.2,30.29,SSW,210,0.0,0.0,87,0.01,,---,0.02,VWS V14.01,2013-04-27 06:07:00,
2013-04-27 02:08:00,51.9,48.2,30.29,SSW,210,0.0,0.0,87,0.01,,---,0.02,VWS V14.01,2013-04-27 06:08:00,
2013-04-27 02:09:00,51.9,48.2,30.29,SSW,210,0.0,0.0,87,0.01,,---,0.02,VWS V14.01,2013-04-27 06:09:00,
2013-04-27 02:10:00,51.7,48.0,30.29,SSW,210,0.0,1.0,87,0.01,,---,0.02,VWS V14.01,2013-04-27 06:10:00,
2013-04-27 02:11:00,51.7,48.0,30.29,SSW,210,0.0,0.0,87,0.01,,---,0.02,VWS V14.01,2013-04-27 06:11:00,
2013-04-27 02:12:00,51.6,47.9,30.29,SSW,210,0.0,0.0,87,0.01,,---,0.02,VWS V14.01,2013-04-27 06:12:00,
2013-04-27 02:13:00,51.6,47.9,30.29,SSW,210,0.0,0.0,87,0.01,,---,0.02,VWS V14.01,2013-04-27 06:13:00,
2013-04-27 02:14:00,51.4,47.7,30.29,SSW,210,0.0,0.0,87,0.01,,---,0.02,VWS V14.01,2013-04-27 06:14:00,
2013-04-27 02:15:00,51.4,47.7,30.30,SSW,210,0.0,0.0,87,0.01,,---,0.02,VWS V14.01,2013-04-27 06:15:00,
2013-04-27 02:16:00,51.4,47.7,30.30,SSW,210,0.0,0.0,87,0.01,,---,0.02,VWS V14.01,2013-04-27 06:16:00,
2013-04-27 02:17:00,51.3,47.6,30.30,SSW,210,0.0,0.0,87,0.01,,---,0.02,VWS V14.01,2013-04-27 06:17:00,
2013-04-27 02:18:00,51.3,47.6,30.30,SSW,210,0.0,0.0,87,0.01,,---,0.02,VWS V14.01,2013-04-27 06:18:00,
2013-04-27 02:19:00,51.3,47.6,30.30,SSW,210,0.0,0.0,87,0.01,,---,0.02,VWS V14.01,2013-04-27 06:19:00,
2013-04-27 02:20:00,51.1,47.4,30.30,SSW,210,0.0,0.0,87,0.01,,---,0.02,VWS V14.01,2013-04-27 06:20:00,
2013-04-27 02:21:00,51.1,47.4,30.30,SSW,210,0.0,0.0,87,0.01,,---,0.02,VWS V14.01,2013-04-27 06:21:00,
2013-04-27 02:22:00,51.1,47.4,30.30,SSW,210,0.0,0.0,87,0.01,,---,0.02,VWS V14.01,2013-04-27 06:22:00,
2013-04-27 02:23:00,51.1,47.4,30.30,SSW,210,0.0,0.0,87,0.01,,---,0.02,VWS V14.01,2013-04-27 06:23:00,
2013-04-27 02:24:00,51.0,47.3,30.30,SSW,210,0.0,0.0,87,0.01,,---,0.02,VWS V14.01,2013-04-27 06:24:00,
2013-04-27 02:25:00,51.0,47.6,30.30,SSW,210,0.0,0.0,88,0.01,,---,0.02,VWS V14.01,2013-04-27 06:25:00,
2013-04-27 02:26:00,51.0,47.6,30.30,SSW,210,0.0,0.0,88,0.01,,---,0.02,VWS V14.01,2013-04-27 06:26:00,
2013-04-27 02:27:00,51.0,47.6,30.30,SSW,210,0.0,0.0,88,0.01,,---,0.02,VWS V14.01,2013-04-27 06:27:00,
2013-04-27 02:28:00,51.0,47.6,30.30,SSW,210,0.0,0.0,88,0.01,,---,0.02,VWS V14.01,2013-04-27 06:28:00,
2013-04-27 02:29:00,50.8,47.4,30.30,SSW,210,0.0,0.0,88,0.01,,---,0.02,VWS V14.01,2013-04-27 06:29:00,
2013-04-27 02:30:00,50.8,47.4,30.30,SSW,210,0.0,0.0,88,0.01,,---,0.02,VWS V14.01,2013-04-27 06:30:00,
2013-04-27 02:31:00,50.8,47.4,30.30,SSW,210,0.0,0.0,88,0.01,,---,0.02,VWS V14.01,2013-04-27 06:31:00,
2013-04-27 02:32:00,50.8,47.4,30.30,SSW,210,0.0,0.0,88,0.01,,---,0.02,VWS V14.01,2013-04-27 06:32:00,
2013-04-27 02:33:00,50.8,47.4,30.30,SSW,210,0.0,0.0,88,0.02,,---,0.03,VWS V14.01,2013-04-27 06:33:00,
2013-04-27 02:34:00,50.7,47.3,30.30,SSW,210,0.0,0.0,88,0.02,,---,0.03,VWS V14.01,2013-04-27 06:34:00,
2013-04-27 02:35:00,50.7,47.3,30.30,SSW,210,0.0,0.0,88,0.02,,---,0.03,VWS V14.01,2013-04-27 06:35:00,
2013-04-27 02:36:00,50.7,47.3,30.30,SSW,210,0.0,0.0,88,0.02,,---,0.03,VWS V14.01,2013-04-27 06:36:00,
2013-04-27 02:37:00,50.7,47.3,30.30,SSW,210,0.0,0.0,88,0.02,,---,0.03,VWS V14.01,2013-04-27 06:37:00,
2013-04-27 02:38:00,50.5,47.1,30.30,SSW,210,0.0,0.0,88,0.02,,---,0.03,VWS V14.01,2013-04-27 06:38:00,
2013-04-27 02:39:00,50.5,47.1,30.30,SSW,210,0.0,0.0,88,0.02,,---,0.03,VWS V14.01,2013-04-27 06:39:00,
2013-04-27 02:40:00,50.5,47.4,30.30,SSW,210,0.0,0.0,89,0.02,,---,0.03,VWS V14.01,2013-04-27 06:40:00,
2013-04-27 02:41:00,50.7,47.6,30.30,SSW,210,0.0,0.0,89,0.02,,---,0.03,VWS V14.01,2013-04-27 06:41:00,
2013-04-27 02:42:00,50.7,47.6,30.30,SSW,210,0.0,0.0,89,0.02,,---,0.03,VWS V14.01,2013-04-27 06:42:00,
2013-04-27 02:43:00,50.5,47.4,30.30,SSW,210,0.0,0.0,89,0.02,,---,0.03,VWS V14.01,2013-04-27 06:43:00,
2013-04-27 02:44:00,50.7,47.6,30.30,SSW,210,0.0,0.0,89,0.02,,---,0.03,VWS V14.01,2013-04-27 06:44:00,
2013-04-27 02:45:00,50.7,47.6,30.28,SSW,210,0.0,0.0,89,0.02,,---,0.03,VWS V14.01,2013-04-27 06:45:00,
2013-04-27 02:46:00,50.7,47.6,30.28,SSW,210,0.0,0.0,89,0.02,,---,0.03,VWS V14.01,2013-04-27 06:46:00,
2013-04-27 02:47:00,50.7,47.6,30.28,SSW,210,0.0,0.0,89,0.02,,---,0.03,VWS V14.01,2013-04-27 06:47:00,
2013-04-27 02:48:00,50.7,47.6,30.28,SSW,210,0.0,0.0,89,0.02,,---,0.03,VWS V14.01,2013-04-27 06:48:00,
2013-04-27 02:49:00,50.7,47.6,30.28,SSW,210,0.0,0.0,89,0.02,,---,0.03,VWS V14.01,2013-04-27 06:49:00,
2013-04-27 02:50:00,50.5,47.4,30.28,SSW,210,0.0,0.0,89,0.02,,---,0.03,VWS V14.01,2013-04-27 06:50:00,
2013-04-27 02:51:00,50.7,47.6,30.28,SSW,210,0.0,0.0,89,0.01,,---,0.03,VWS V14.01,2013-04-27 06:51:00,
2013-04-27 02:52:00,50.5,47.4,30.28,SSW,210,0.0,0.0,89,0.01,,---,0.03,VWS V14.01,2013-04-27 06:52:00,
2013-04-27 02:53:00,50.5,47.4,30.28,SSW,210,0.0,0.0,89,0.01,,---,0.03,VWS V14.01,2013-04-27 06:53:00,
2013-04-27 02:54:00,50.5,47.4,30.28,SSW,210,0.0,0.0,89,0.01,,---,0.03,VWS V14.01,2013-04-27 06:54:00,
2013-04-27 02:55:00,50.5,47.4,30.28,SSW,210,0.0,0.0,89,0.01,,---,0.03,VWS V14.01,2013-04-27 06:55:00,
2013-04-27 02:56:00,50.5,47.4,30.28,SSW,210,0.0,0.0,89,0.01,,---,0.03,VWS V14.01,2013-04-27 06:56:00,
2013-04-27 02:57:00,50.5,47.4,30.28,SSW,210,0.0,0.0,89,0.01,,---,0.03,VWS V14.01,2013-04-27 06:57:00,
2013-04-27 02:58:00,50.5,47.4,30.28,SSW,210,0.0,0.0,89,0.01,,---,0.03,VWS V14.01,2013-04-27 06:58:00,
2013-04-27 02:59:00,50.5,47.4,30.28,SSW,210,0.0,0.0,89,0.01,,---,0.03,VWS V14.01,2013-04-27 06:59:00,
2013-04-27 03:00:00,50.5,47.4,30.30,SSW,210,0.0,0.0,89,0.01,,---,0.03,VWS V14.01,2013-04-27 07:00:00,
2013-04-27 03:01:00,50.5,47.4,30.30,SSW,210,0.0,0.0,89,0.01,,---,0.03,VWS V14.01,2013-04-27 07:01:00,
2013-04-27 03:02:00,50.5,47.4,30.30,SSW,210,0.0,0.0,89,0.01,,---,0.03,VWS V14.01,2013-04-27 07:02:00,
2013-04-27 03:03:00,50.5,47.4,30.30,SSW,210,0.0,0.0,89,0.01,,---,0.03,VWS V14.01,2013-04-27 07:03:00,
2013-04-27 03:04:00,50.4,47.3,30.30,SSW,210,0.0,0.0,89,0.01,,---,0.03,VWS V14.01,2013-04-27 07:04:00,
2013-04-27 03:05:00,50.4,47.3,30.30,SSW,210,0.0,0.0,89,0.01,,---,0.03,VWS V14.01,2013-04-27 07:05:00,
2013-04-27 03:06:00,50.4,47.3,30.30,SSW,210,0.0,0.0,89,0.01,,---,0.03,VWS V14.01,2013-04-27 07:06:00,
2013-04-27 03:07:00,50.4,47.3,30.30,SSW,210,0.0,0.0,89,0.01,,---,0.03,VWS V14.01,2013-04-27 07:07:00,
2013-04-27 03:08:00,50.4,47.3,30.30,SSW,210,0.0,0.0,89,0.01,,---,0.03,VWS V14.01,2013-04-27 07:08:00,
2013-04-27 03:09:00,50.4,47.3,30.30,SSW,210,0.0,0.0,89,0.01,,---,0.03,VWS V14.01,2013-04-27 07:09:00,
2013-04-27 03:10:00,50.4,47.6,30.30,SSW,210,0.0,0.0,90,0.01,,---,0.03,VWS V14.01,2013-04-27 07:10:00,
2013-04-27 03:11:00,50.4,47.6,30.30,SSW,210,0.0,0.0,90,0.01,,---,0.03,VWS V14.01,2013-04-27 07:11:00,
2013-04-27 03:12:00,50.4,47.6,30.30,SSW,210,0.0,0.0,90,0.01,,---,0.03,VWS V14.01,2013-04-27 07:12:00,
2013-04-27 03:13:00,50.4,47.6,30.30,SSW,210,0.0,0.0,90,0.01,,---,0.03,VWS V14.01,2013-04-27 07:13:00,
2013-04-27 03:14:00,50.4,47.6,30.30,SSW,210,0.0,0.0,90,0.01,,---,0.03,VWS V14.01,2013-04-27 07:14:00,
2013-04-27 03:15:00,50.4,47.6,30.29,SSW,210,0.0,0.0,90,0.01,,---,0.03,VWS V14.01,2013-04-27 07:15:00,
2013-04-27 03:16:00,50.4,47.6,30.29,SSW,210,0.0,0.0,90,0.01,,---,0.03,VWS V14.01,2013-04-27 07:16:00,
2013-04-27 03:17:00,50.4,47.6,30.29,SSW,210,0.0,0.0,90,0.01,,---,0.03,VWS V14.01,2013-04-27 07:17:00,
2013-04-27 03:18:00,50.4,47.6,30.29,SSW,210,0.0,0.0,90,0.01,,---,0.03,VWS V14.01,2013-04-27 07:18:00,
2013-04-27 03:19:00,50.4,47.6,30.29,SSW,210,0.0,0.0,90,0.01,,---,0.03,VWS V14.01,2013-04-27 07:19:00,
2013-04-27 03:20:00,50.4,47.6,30.29,SSW,210,0.0,0.0,90,0.01,,---,0.03,VWS V14.01,2013-04-27 07:20:00,
2013-04-27 03:21:00,50.2,47.4,30.29,SSW,210,0.0,0.0,90,0.01,,---,0.03,VWS V14.01,2013-04-27 07:21:00,
2013-04-27 03:22:00,50.4,47.6,30.29,SSW,210,0.0,0.0,90,0.01,,---,0.03,VWS V14.01,2013-04-27 07:22:00,
2013-04-27 03:23:00,50.4,47.6,30.29,SSW,210,0.0,0.0,90,0.01,,---,0.03,VWS V14.01,2013-04-27 07:23:00,
2013-04-27 03:24:00,50.4,47.6,30.29,SSW,210,0.0,0.0,90,0.01,,---,0.03,VWS V14.01,2013-04-27 07:24:00,
2013-04-27 03:25:00,50.4,47.6,30.29,SSW,210,0.0,0.0,90,0.01,,---,0.03,VWS V14.01,2013-04-27 07:25:00,
2013-04-27 03:26:00,50.4,47.6,30.29,SSW,210,0.0,0.0,90,0.01,,---,0.03,VWS V14.01,2013-04-27 07:26:00,
2013-04-27 03:27:00,50.4,47.6,30.29,SSW,210,0.0,0.0,90,0.01,,---,0.03,VWS V14.01,2013-04-27 07:27:00,
2013-04-27 03:28:00,50.4,47.6,30.29,SSW,210,0.0,0.0,90,0.01,,---,0.03,VWS V14.01,2013-04-27 07:28:00,
2013-04-27 03:29:00,50.4,47.6,30.29,SSW,210,0.0,0.0,90,0.01,,---,0.03,VWS V14.01,2013-04-27 07:29:00,
2013-04-27 03:30:00,50.4,47.6,30.28,SSW,210,0.0,0.0,90,0.01,,---,0.03,VWS V14.01,2013-04-27 07:30:00,
2013-04-27 03:31:00,50.4,47.6,30.28,SSW,210,0.0,0.0,90,0.01,,---,0.03,VWS V14.01,2013-04-27 07:31:00,
2013-04-27 03:32:00,50.4,47.6,30.28,SSW,210,0.0,0.0,90,0.01,,---,0.03,VWS V14.01,2013-04-27 07:32:00,
2013-04-27 03:33:00,50.4,47.6,30.28,SSW,210,0.0,0.0,90,0.01,,---,0.03,VWS V14.01,2013-04-27 07:33:00,
2013-04-27 03:34:00,50.4,47.9,30.28,SSW,210,0.0,0.0,91,0.01,,---,0.03,VWS V14.01,2013-04-27 07:34:00,
2013-04-27 03:35:00,50.4,47.9,30.28,SSW,210,0.0,0.0,91,0.01,,---,0.03,VWS V14.01,2013-04-27 07:35:00,
2013-04-27 03:36:00,50.4,47.9,30.28,SSW,210,0.0,0.0,91,0.01,,---,0.03,VWS V14.01,2013-04-27 07:36:00,
2013-04-27 03:37:00,50.4,47.9,30.28,SSW,210,0.0,0.0,91,0.01,,---,0.03,VWS V14.01,2013-04-27 07:37:00,
2013-04-27 03:38:00,50.4,47.9,30.28,SSW,210,0.0,0.0,91,0.01,,---,0.03,VWS V14.01,2013-04-27 07:38:00,
2013-04-27 03:39:00,50.4,47.9,30.28,SSW,210,0.0,0.0,91,0.01,,---,0.03,VWS V14.01,2013-04-27 07:39:00,
2013-04-27 03:40:00,50.4,47.9,30.28,SSW,210,0.0,0.0,91,0.01,,---,0.03,VWS V14.01,2013-04-27 07:40:00,
2013-04-27 03:41:00,50.4,47.9,30.28,SSW,210,0.0,0.0,91,0.00,,---,0.03,VWS V14.01,2013-04-27 07:41:00,
2013-04-27 03:42:00,50.4,47.9,30.28,SSW,210,0.0,0.0,91,0.01,,---,0.04,VWS V14.01,2013-04-27 07:42:00,
2013-04-27 03:43:00,50.4,47.9,30.28,SSW,210,0.0,0.0,91,0.01,,---,0.04,VWS V14.01,2013-04-27 07:43:00,
2013-04-27 03:44:00,50.4,47.9,30.28,SSW,210,0.0,0.0,91,0.01,,---,0.04,VWS V14.01,2013-04-27 07:44:00,
2013-04-27 03:45:00,50.4,47.9,30.26,SSW,210,0.0,0.0,91,0.01,,---,0.04,VWS V14.01,2013-04-27 07:45:00,
2013-04-27 03:46:00,50.5,48.0,30.26,SSW,210,0.0,0.0,91,0.01,,---,0.04,VWS V14.01,2013-04-27 07:46:00,
2013-04-27 03:47:00,50.5,48.0,30.26,SSW,210,0.0,0.0,91,0.01,,---,0.04,VWS V14.01,2013-04-27 07:47:00,
2013-04-27 03:48:00,50.5,48.0,30.26,SSW,210,0.0,0.0,91,0.01,,---,0.04,VWS V14.01,2013-04-27 07:48:00,
2013-04-27 03:49:00,50.5,48.0,30.26,SSW,210,0.0,0.0,91,0.01,,---,0.04,VWS V14.01,2013-04-27 07:49:00,
2013-04-27 03:50:00,50.5,48.0,30.26,SSW,210,0.0,0.0,91,0.01,,---,0.04,VWS V14.01,2013-04-27 07:50:00,
2013-04-27 03:51:00,50.5,48.0,30.26,SSW,210,0.0,0.0,91,0.01,,---,0.04,VWS V14.01,2013-04-27 07:51:00,
2013-04-27 03:52:00,50.5,48.0,30.26,SSW,210,0.0,0.0,91,0.01,,---,0.04,VWS V14.01,2013-04-27 07:52:00,
2013-04-27 03:53:00,50.5,48.0,30.26,SSW,210,0.0,0.0,91,0.01,,---,0.04,VWS V14.01,2013-04-27 07:53:00,
2013-04-27 03:54:00,50.5,48.0,30.26,SSW,210,0.0,0.0,91,0.01,,---,0.04,VWS V14.01,2013-04-27 07:54:00,
2013-04-27 03:55:00,50.7,48.2,30.26,SSW,210,0.0,0.0,91,0.01,,---,0.04,VWS V14.01,2013-04-27 07:55:00,
2013-04-27 03:56:00,50.7,48.2,30.26,SSW,210,0.0,0.0,91,0.01,,---,0.04,VWS V14.01,2013-04-27 07:56:00,
2013-04-27 03:57:00,50.7,48.2,30.26,SSW,210,0.0,0.0,91,0.01,,---,0.04,VWS V14.01,2013-04-27 07:57:00,
2013-04-27 03:58:00,50.7,48.2,30.26,SSW,210,0.0,0.0,91,0.01,,---,0.04,VWS V14.01,2013-04-27 07:58:00,
2013-04-27 03:59:00,50.7,48.2,30.26,SSW,210,0.0,0.0,91,0.01,,---,0.04,VWS V14.01,2013-04-27 07:59:00,
2013-04-27 04:00:00,50.7,48.2,30.26,SSW,210,0.0,0.0,91,0.01,,---,0.04,VWS V14.01,2013-04-27 08:00:00,
2013-04-27 04:01:00,50.7,48.2,30.26,SSW,210,0.0,0.0,91,0.01,,---,0.04,VWS V14.01,2013-04-27 08:01:00,
2013-04-27 04:02:00,50.8,48.3,30.26,SSW,210,0.0,0.0,91,0.01,,---,0.04,VWS V14.01,2013-04-27 08:02:00,
2013-04-27 04:03:00,50.8,48.3,30.26,SSW,210,0.0,0.0,91,0.01,,---,0.04,VWS V14.01,2013-04-27 08:03:00,
2013-04-27 04:04:00,50.8,48.3,30.26,SSW,210,0.0,0.0,91,0.01,,---,0.04,VWS V14.01,2013-04-27 08:04:00,
2013-04-27 04:05:00,50.8,48.6,30.26,SSW,210,0.0,0.0,92,0.01,,---,0.04,VWS V14.01,2013-04-27 08:05:00,
2013-04-27 04:06:00,50.8,48.6,30.26,SSW,210,0.0,0.0,92,0.01,,---,0.04,VWS V14.01,2013-04-27 08:06:00,
2013-04-27 04:07:00,50.8,48.6,30.26,SSW,210,0.0,0.0,92,0.01,,---,0.04,VWS V14.01,2013-04-27 08:07:00,
2013-04-27 04:08:00,50.8,48.6,30.26,SSW,210,0.0,0.0,92,0.01,,---,0.04,VWS V14.01,2013-04-27 08:08:00,
2013-04-27 04:09:00,50.8,48.6,30.26,SSW,210,0.0,0.0,92,0.01,,---,0.04,VWS V14.01,2013-04-27 08:09:00,
2013-04-27 04:10:00,50.8,48.6,30.26,SSW,210,0.0,0.0,92,0.01,,---,0.04,VWS V14.01,2013-04-27 08:10:00,
2013-04-27 04:11:00,51.0,48.8,30.26,SSW,210,0.0,0.0,92,0.01,,---,0.04,VWS V14.01,2013-04-27 08:11:00,
2013-04-27 04:12:00,51.0,48.8,30.26,SSW,210,0.0,0.0,92,0.01,,---,0.04,VWS V14.01,2013-04-27 08:12:00,
2013-04-27 04:13:00,51.0,48.8,30.26,SSW,210,0.0,0.0,92,0.01,,---,0.04,VWS V14.01,2013-04-27 08:13:00,
2013-04-27 04:14:00,51.0,48.8,30.26,SSW,210,0.0,0.0,92,0.01,,---,0.04,VWS V14.01,2013-04-27 08:14:00,
2013-04-27 04:15:00,51.0,48.8,30.27,SSW,210,0.0,0.0,92,0.01,,---,0.04,VWS V14.01,2013-04-27 08:15:00,
2013-04-27 04:16:00,51.0,48.8,30.27,SSW,210,0.0,0.0,92,0.01,,---,0.04,VWS V14.01,2013-04-27 08:16:00,
2013-04-27 04:17:00,51.0,48.8,30.27,SSW,210,0.0,0.0,92,0.01,,---,0.04,VWS V14.01,2013-04-27 08:17:00,
2013-04-27 04:18:00,51.0,48.8,30.27,SSW,210,0.0,0.0,92,0.01,,---,0.04,VWS V14.01,2013-04-27 08:18:00,
2013-04-27 04:19:00,51.0,48.8,30.27,SSW,210,0.0,0.0,92,0.01,,---,0.04,VWS V14.01,2013-04-27 08:19:00,
2013-04-27 04:20:00,51.0,48.8,30.27,SSW,210,0.0,0.0,92,0.01,,---,0.04,VWS V14.01,2013-04-27 08:20:00,
2013-04-27 04:21:00,51.0,48.8,30.27,SSW,210,0.0,0.0,92,0.01,,---,0.04,VWS V14.01,2013-04-27 08:21:00,
2013-04-27 04:22:00,51.0,48.8,30.27,SSW,210,0.0,0.0,92,0.01,,---,0.04,VWS V14.01,2013-04-27 08:22:00,
2013-04-27 04:23:00,51.0,48.8,30.27,SSW,210,0.0,0.0,92,0.01,,---,0.04,VWS V14.01,2013-04-27 08:23:00,
2013-04-27 04:24:00,51.0,48.8,30.27,SSW,210,0.0,0.0,92,0.01,,---,0.04,VWS V14.01,2013-04-27 08:24:00,
2013-04-27 04:25:00,51.0,48.8,30.27,SSW,210,0.0,0.0,92,0.01,,---,0.04,VWS V14.01,2013-04-27 08:25:00,
2013-04-27 04:26:00,51.0,48.8,30.27,SSW,210,0.0,0.0,92,0.01,,---,0.04,VWS V14.01,2013-04-27 08:26:00,
2013-04-27 04:27:00,51.0,48.8,30.27,SSW,210,0.0,0.0,92,0.01,,---,0.04,VWS V14.01,2013-04-27 08:27:00,
2013-04-27 04:28:00,51.0,48.8,30.27,SSW,210,0.0,0.0,92,0.01,,---,0.04,VWS V14.01,2013-04-27 08:28:00,
2013-04-27 04:29:00,51.0,48.8,30.27,SSW,210,0.0,0.0,92,0.02,,---,0.05,VWS V14.01,2013-04-27 08:29:00,
2013-04-27 04:30:00,51.0,48.8,30.27,SSW,210,0.0,0.0,92,0.02,,---,0.05,VWS V14.01,2013-04-27 08:30:00,
2013-04-27 04:31:00,51.0,48.8,30.27,SSW,210,0.0,0.0,92,0.02,,---,0.05,VWS V14.01,2013-04-27 08:31:00,
2013-04-27 04:32:00,51.0,48.8,30.27,SSW,210,0.0,0.0,92,0.02,,---,0.05,VWS V14.01,2013-04-27 08:32:00,
2013-04-27 04:33:00,51.0,48.8,30.27,SSW,210,0.0,0.0,92,0.02,,---,0.05,VWS V14.01,2013-04-27 08:33:00,
2013-04-27 04:34:00,51.0,48.8,30.27,SSW,210,0.0,0.0,92,0.02,,---,0.05,VWS V14.01,2013-04-27 08:34:00,
2013-04-27 04:35:00,51.0,48.8,30.27,SSW,210,0.0,0.0,92,0.02,,---,0.05,VWS V14.01,2013-04-27 08:35:00,
2013-04-27 04:36:00,51.0,48.8,30.27,SSW,210,0.0,0.0,92,0.02,,---,0.05,VWS V14.01,2013-04-27 08:36:00,
2013-04-27 04:37:00,51.0,48.8,30.27,SSW,210,0.0,0.0,92,0.02,,---,0.05,VWS V14.01,2013-04-27 08:37:00,
2013-04-27 04:38:00,51.0,48.8,30.27,SSW,210,0.0,0.0,92,0.02,,---,0.05,VWS V14.01,2013-04-27 08:38:00,
2013-04-27 04:39:00,51.0,48.8,30.27,SSW,210,0.0,0.0,92,0.02,,---,0.05,VWS V14.01,2013-04-27 08:39:00,
2013-04-27 04:40:00,51.0,48.8,30.27,SSW,210,0.0,0.0,92,0.02,,---,0.05,VWS V14.01,2013-04-27 08:40:00,
2013-04-27 04:41:00,51.0,48.8,30.27,SSW,210,0.0,0.0,92,0.02,,---,0.05,VWS V14.01,2013-04-27 08:41:00,
2013-04-27 04:42:00,51.0,48.8,30.27,SSW,210,0.0,0.0,92,0.02,,---,0.05,VWS V14.01,2013-04-27 08:42:00,
2013-04-27 04:43:00,51.0,48.8,30.27,SSW,210,0.0,0.0,92,0.02,,---,0.05,VWS V14.01,2013-04-27 08:43:00,
2013-04-27 04:44:00,51.0,48.8,30.27,SSW,210,0.0,0.0,92,0.02,,---,0.05,VWS V14.01,2013-04-27 08:44:00,
2013-04-27 04:45:00,51.0,48.8,30.26,SSW,210,0.0,0.0,92,0.02,,---,0.05,VWS V14.01,2013-04-27 08:45:00,
2013-04-27 04:46:00,51.0,48.8,30.26,SSW,210,0.0,0.0,92,0.02,,---,0.05,VWS V14.01,2013-04-27 08:46:00,
2013-04-27 04:47:00,51.0,48.8,30.26,SSW,210,0.0,0.0,92,0.02,,---,0.05,VWS V14.01,2013-04-27 08:47:00,
2013-04-27 04:48:00,51.0,48.8,30.26,SSW,210,0.0,0.0,92,0.02,,---,0.05,VWS V14.01,2013-04-27 08:48:00,
2013-04-27 04:49:00,51.0,48.8,30.26,SSW,210,0.0,0.0,92,0.02,,---,0.05,VWS V14.01,2013-04-27 08:49:00,
2013-04-27 04:50:00,51.0,48.8,30.26,SSW,210,0.0,0.0,92,0.02,,---,0.05,VWS V14.01,2013-04-27 08:50:00,
2013-04-27 04:51:00,51.0,48.8,30.26,SSW,210,0.0,0.0,92,0.01,,---,0.05,VWS V14.01,2013-04-27 08:51:00,
2013-04-27 04:52:00,51.0,48.8,30.26,SSW,210,0.0,0.0,92,0.01,,---,0.05,VWS V14.01,2013-04-27 08:52:00,
2013-04-27 04:53:00,51.0,48.8,30.26,SSW,210,0.0,0.0,92,0.01,,---,0.05,VWS V14.01,2013-04-27 08:53:00,
2013-04-27 04:54:00,51.0,48.8,30.26,SSW,210,0.0,0.0,92,0.01,,---,0.05,VWS V14.01,2013-04-27 08:54:00,
2013-04-27 04:55:00,51.0,48.8,30.26,SSW,200,0.0,0.0,92,0.01,,---,0.05,VWS V14.01,2013-04-27 08:55:00,
2013-04-27 04:56:00,51.0,48.8,30.26,SSW,210,0.0,0.0,92,0.01,,---,0.05,VWS V14.01,2013-04-27 08:56:00,
2013-04-27 04:57:00,51.0,48.8,30.26,SSW,210,0.0,0.0,92,0.01,,---,0.05,VWS V14.01,2013-04-27 08:57:00,
2013-04-27 04:58:00,51.0,48.8,30.26,SSW,210,0.0,0.0,92,0.01,,---,0.05,VWS V14.01,2013-04-27 08:58:00,
2013-04-27 04:59:00,51.0,48.8,30.26,SSW,210,0.0,0.0,92,0.01,,---,0.05,VWS V14.01,2013-04-27 08:59:00,
2013-04-27 05:00:00,51.0,48.8,30.22,SSW,210,0.0,0.0,92,0.01,,---,0.05,VWS V14.01,2013-04-27 09:00:00,
2013-04-27 05:01:00,50.8,48.6,30.22,SSW,210,0.0,0.0,92,0.01,,---,0.05,VWS V14.01,2013-04-27 09:01:00,
2013-04-27 05:02:00,51.0,48.8,30.22,SSW,210,0.0,0.0,92,0.01,,---,0.05,VWS V14.01,2013-04-27 09:02:00,
2013-04-27 05:03:00,51.0,48.8,30.22,SSW,210,0.0,0.0,92,0.01,,---,0.05,VWS V14.01,2013-04-27 09:03:00,
2013-04-27 05:04:00,51.0,48.8,30.22,SSW,210,0.0,0.0,92,0.01,,---,0.05,VWS V14.01,2013-04-27 09:04:00,
2013-04-27 05:05:00,51.0,48.8,30.22,SSW,210,0.0,0.0,92,0.01,,---,0.05,VWS V14.01,2013-04-27 09:05:00,
2013-04-27 05:06:00,51.0,48.8,30.22,SSW,210,0.0,0.0,92,0.01,,---,0.05,VWS V14.01,2013-04-27 09:06:00,
2013-04-27 05:07:00,51.0,48.8,30.22,SSW,210,0.0,0.0,92,0.01,,---,0.05,VWS V14.01,2013-04-27 09:07:00,
2013-04-27 05:08:00,51.0,48.8,30.22,SSW,210,0.0,0.0,92,0.01,,---,0.05,VWS V14.01,2013-04-27 09:08:00,
2013-04-27 05:09:00,51.0,48.8,30.22,SSW,210,0.0,0.0,92,0.01,,---,0.05,VWS V14.01,2013-04-27 09:09:00,
2013-04-27 05:10:00,51.0,48.8,30.22,SSW,210,0.0,0.0,92,0.01,,---,0.05,VWS V14.01,2013-04-27 09:10:00,
2013-04-27 05:11:00,51.0,48.8,30.22,SSW,210,0.0,0.0,92,0.01,,---,0.05,VWS V14.01,2013-04-27 09:11:00,
2013-04-27 05:12:00,51.0,48.8,30.22,SSW,210,0.0,0.0,92,0.01,,---,0.05,VWS V14.01,2013-04-27 09:12:00,
2013-04-27 05:13:00,51.0,48.8,30.22,SSW,210,0.0,0.0,92,0.01,,---,0.05,VWS V14.01,2013-04-27 09:13:00,
2013-04-27 05:14:00,51.0,48.8,30.22,SSW,210,0.0,0.0,92,0.01,,---,0.05,VWS V14.01,2013-04-27 09:14:00,
2013-04-27 05:15:00,51.0,48.8,30.24,SSW,210,0.0,0.0,92,0.01,,---,0.05,VWS V14.01,2013-04-27 09:15:00,
2013-04-27 05:16:00,51.0,48.8,30.24,SSW,210,0.0,0.0,92,0.01,,---,0.05,VWS V14.01,2013-04-27 09:16:00,
2013-04-27 05:17:00,51.0,48.8,30.24,SSW,210,0.0,0.0,92,0.01,,---,0.05,VWS V14.01,2013-04-27 09:17:00,
2013-04-27 05:18:00,51.0,48.8,30.24,SSW,210,0.0,0.0,92,0.01,,---,0.05,VWS V14.01,2013-04-27 09:18:00,
2013-04-27 05:19:00,51.0,48.8,30.24,SSW,210,0.0,0.0,92,0.01,,---,0.05,VWS V14.01,2013-04-27 09:19:00,
2013-04-27 05:20:00,51.0,48.8,30.24,SSW,210,0.0,0.0,92,0.01,,---,0.05,VWS V14.01,2013-04-27 09:20:00,
2013-04-27 05:21:00,51.0,48.8,30.24,SSW,210,0.0,0.0,92,0.01,,---,0.05,VWS V14.01,2013-04-27 09:21:00,
2013-04-27 05:22:00,51.1,48.9,30.24,SSW,210,0.0,0.0,92,0.01,,---,0.05,VWS V14.01,2013-04-27 09:22:00,
2013-04-27 05:23:00,51.1,48.9,30.24,SSW,210,0.0,0.0,92,0.01,,---,0.05,VWS V14.01,2013-04-27 09:23:00,
2013-04-27 05:24:00,51.1,48.9,30.24,SSW,210,0.0,0.0,92,0.01,,---,0.05,VWS V14.01,2013-04-27 09:24:00,
2013-04-27 05:25:00,51.1,48.9,30.24,SSW,210,0.0,0.0,92,0.01,,---,0.05,VWS V14.01,2013-04-27 09:25:00,
2013-04-27 05:26:00,51.1,48.9,30.24,SSW,210,0.0,0.0,92,0.01,,---,0.05,VWS V14.01,2013-04-27 09:26:00,
2013-04-27 05:27:00,51.1,48.9,30.24,SSW,210,0.0,0.0,92,0.01,,---,0.05,VWS V14.01,2013-04-27 09:27:00,
2013-04-27 05:28:00,51.3,49.1,30.24,SSW,210,0.0,0.0,92,0.01,,---,0.05,VWS V14.01,2013-04-27 09:28:00,
2013-04-27 05:29:00,51.3,49.1,30.24,SSW,210,0.0,0.0,92,0.01,,---,0.05,VWS V14.01,2013-04-27 09:29:00,
2013-04-27 05:30:00,51.3,49.1,30.23,SSW,210,0.0,0.0,92,0.01,,---,0.05,VWS V14.01,2013-04-27 09:30:00,
2013-04-27 05:31:00,51.3,49.1,30.23,SSW,210,0.0,0.0,92,0.00,,---,0.05,VWS V14.01,2013-04-27 09:31:00,
2013-04-27 05:32:00,51.3,49.1,30.23,SSW,210,0.0,0.0,92,0.00,,---,0.05,VWS V14.01,2013-04-27 09:32:00,
2013-04-27 05:33:00,51.3,49.1,30.23,SSW,210,0.0,0.0,92,0.00,,---,0.05,VWS V14.01,2013-04-27 09:33:00,
2013-04-27 05:34:00,51.3,49.1,30.23,SSW,210,0.0,0.0,92,0.00,,---,0.05,VWS V14.01,2013-04-27 09:34:00,
2013-04-27 05:35:00,51.3,49.1,30.23,SSW,210,0.0,0.0,92,0.00,,---,0.05,VWS V14.01,2013-04-27 09:35:00,
2013-04-27 05:36:00,51.1,48.9,30.23,SSW,210,0.0,0.0,92,0.00,,---,0.05,VWS V14.01,2013-04-27 09:36:00,
2013-04-27 05:37:00,51.1,48.9,30.23,SSW,210,0.0,0.0,92,0.00,,---,0.05,VWS V14.01,2013-04-27 09:37:00,
2013-04-27 05:38:00,51.1,48.9,30.23,SSW,210,0.0,0.0,92,0.00,,---,0.05,VWS V14.01,2013-04-27 09:38:00,
2013-04-27 05:39:00,51.1,48.9,30.23,SSW,210,0.0,0.0,92,0.00,,---,0.05,VWS V14.01,2013-04-27 09:39:00,
2013-04-27 05:40:00,51.1,48.9,30.23,SSW,210,0.0,0.0,92,0.00,,---,0.05,VWS V14.01,2013-04-27 09:40:00,
2013-04-27 05:41:00,51.1,48.9,30.23,SSW,210,0.0,0.0,92,0.00,,---,0.05,VWS V14.01,2013-04-27 09:41:00,
2013-04-27 05:42:00,51.1,48.9,30.23,SSW,210,0.0,0.0,92,0.00,,---,0.05,VWS V14.01,2013-04-27 09:42:00,
2013-04-27 05:43:00,51.1,48.9,30.23,SSW,210,0.0,0.0,92,0.00,,---,0.05,VWS V14.01,2013-04-27 09:43:00,
2013-04-27 05:44:00,51.1,48.9,30.23,SSW,210,0.0,0.0,92,0.00,,---,0.05,VWS V14.01,2013-04-27 09:44:00,
2013-04-27 05:45:00,51.1,48.9,30.23,SSW,210,0.0,0.0,92,0.00,,---,0.05,VWS V14.01,2013-04-27 09:45:00,
2013-04-27 05:46:00,51.1,48.9,30.23,SSW,210,0.0,0.0,92,0.00,,---,0.05,VWS V14.01,2013-04-27 09:46:00,
2013-04-27 05:47:00,51.1,48.9,30.23,SSW,210,0.0,0.0,92,0.01,,---,0.06,VWS V14.01,2013-04-27 09:47:00,
2013-04-27 05:48:00,51.1,48.9,30.23,SSW,210,0.0,0.0,92,0.01,,---,0.06,VWS V14.01,2013-04-27 09:48:00,
2013-04-27 05:49:00,51.0,48.8,30.23,SSW,210,0.0,0.0,92,0.01,,---,0.06,VWS V14.01,2013-04-27 09:49:00,
2013-04-27 05:50:00,51.0,48.8,30.23,SSW,210,0.0,0.0,92,0.01,,---,0.06,VWS V14.01,2013-04-27 09:50:00,
2013-04-27 05:51:00,51.0,48.8,30.23,SSW,210,0.0,0.0,92,0.01,,---,0.06,VWS V14.01,2013-04-27 09:51:00,
2013-04-27 05:52:00,51.0,48.8,30.23,SSW,210,0.0,0.0,92,0.01,,---,0.06,VWS V14.01,2013-04-27 09:52:00,
2013-04-27 05:53:00,51.0,48.8,30.23,SSW,210,0.0,0.0,92,0.01,,---,0.06,VWS V14.01,2013-04-27 09:53:00,
2013-04-27 05:54:00,51.0,48.8,30.23,SSW,210,0.0,0.0,92,0.01,,---,0.06,VWS V14.01,2013-04-27 09:54:00,
2013-04-27 05:55:00,51.0,48.8,30.23,SSW,210,0.0,0.0,92,0.01,,---,0.06,VWS V14.01,2013-04-27 09:55:00,
2013-04-27 05:56:00,51.0,48.8,30.23,SSW,210,0.0,0.0,92,0.01,,---,0.06,VWS V14.01,2013-04-27 09:56:00,
2013-04-27 05:57:00,51.0,48.8,30.23,SSW,210,0.0,0.0,92,0.01,,---,0.06,VWS V14.01,2013-04-27 09:57:00,
2013-04-27 05:58:00,51.0,48.8,30.23,SSW,210,0.0,0.0,92,0.01,,---,0.06,VWS V14.01,2013-04-27 09:58:00,
2013-04-27 05:59:00,51.0,48.8,30.23,SSW,210,0.0,0.0,92,0.01,,---,0.06,VWS V14.01,2013-04-27 09:59:00,
2013-04-27 06:00:00,51.0,48.8,30.24,SSW,210,0.0,0.0,92,0.01,,---,0.06,VWS V14.01,2013-04-27 10:00:00,
2013-04-27 06:01:00,51.0,48.8,30.24,SSW,210,0.0,0.0,92,0.01,,---,0.06,VWS V14.01,2013-04-27 10:01:00,
2013-04-27 06:02:00,51.0,48.8,30.24,SSW,210,0.0,0.0,92,0.01,,---,0.06,VWS V14.01,2013-04-27 10:02:00,
2013-04-27 06:03:00,51.0,48.8,30.24,SSW,210,0.0,0.0,92,0.01,,---,0.06,VWS V14.01,2013-04-27 10:03:00,
2013-04-27 06:04:00,51.0,48.8,30.24,SSW,210,0.0,0.0,92,0.01,,---,0.06,VWS V14.01,2013-04-27 10:04:00,
2013-04-27 06:05:00,51.0,48.8,30.24,SSW,210,0.0,0.0,92,0.01,,---,0.06,VWS V14.01,2013-04-27 10:05:00,
2013-04-27 06:06:00,51.0,48.8,30.24,SSW,210,0.0,0.0,92,0.01,,---,0.06,VWS V14.01,2013-04-27 10:06:00,
2013-04-27 06:07:00,51.0,48.8,30.24,SSW,210,0.0,0.0,92,0.01,,---,0.06,VWS V14.01,2013-04-27 10:07:00,
2013-04-27 06:08:00,51.0,48.8,30.24,SSW,210,0.0,0.0,92,0.01,,---,0.06,VWS V14.01,2013-04-27 10:08:00,
2013-04-27 06:09:00,51.0,48.8,30.24,SSW,210,0.0,0.0,92,0.01,,---,0.06,VWS V14.01,2013-04-27 10:09:00,
2013-04-27 06:10:00,51.0,48.8,30.24,SSW,210,0.0,0.0,92,0.01,,---,0.06,VWS V14.01,2013-04-27 10:10:00,
2013-04-27 06:11:00,51.0,48.8,30.24,SSW,210,0.0,0.0,92,0.01,,---,0.06,VWS V14.01,2013-04-27 10:11:00,
2013-04-27 06:12:00,51.0,48.8,30.24,SSW,210,0.0,0.0,92,0.01,,---,0.06,VWS V14.01,2013-04-27 10:12:00,
2013-04-27 06:13:00,51.0,48.8,30.24,SSW,210,0.0,0.0,92,0.01,,---,0.06,VWS V14.01,2013-04-27 10:13:00,
2013-04-27 06:14:00,51.0,48.8,30.24,SSW,210,0.0,0.0,92,0.01,,---,0.06,VWS V14.01,2013-04-27 10:14:00,
2013-04-27 06:15:00,51.0,48.8,30.24,SSW,210,0.0,0.0,92,0.01,,---,0.06,VWS V14.01,2013-04-27 10:15:00,
2013-04-27 06:16:00,51.0,48.8,30.24,SSW,210,0.0,0.0,92,0.01,,---,0.06,VWS V14.01,2013-04-27 10:16:00,
2013-04-27 06:17:00,51.0,48.8,30.24,SSW,210,0.0,0.0,92,0.01,,---,0.06,VWS V14.01,2013-04-27 10:17:00,
2013-04-27 06:18:00,51.1,48.9,30.24,SSW,210,0.0,0.0,92,0.01,,---,0.06,VWS V14.01,2013-04-27 10:18:00,
2013-04-27 06:19:00,51.1,48.9,30.24,SSW,210,0.0,0.0,92,0.01,,---,0.06,VWS V14.01,2013-04-27 10:19:00,
2013-04-27 06:20:00,51.1,48.9,30.24,SSW,210,0.0,0.0,92,0.01,,---,0.06,VWS V14.01,2013-04-27 10:20:00,
2013-04-27 06:21:00,51.1,48.9,30.24,SSW,210,0.0,0.0,92,0.01,,---,0.06,VWS V14.01,2013-04-27 10:21:00,
2013-04-27 06:22:00,51.1,48.9,30.24,SSW,210,0.0,0.0,92,0.01,,---,0.06,VWS V14.01,2013-04-27 10:22:00,
2013-04-27 06:23:00,51.1,48.9,30.24,SSW,210,0.0,0.0,92,0.01,,---,0.06,VWS V14.01,2013-04-27 10:23:00,
2013-04-27 06:24:00,51.0,48.8,30.24,SSW,210,0.0,0.0,92,0.01,,---,0.06,VWS V14.01,2013-04-27 10:24:00,
2013-04-27 06:25:00,51.0,48.8,30.24,SSW,210,0.0,0.0,92,0.01,,---,0.06,VWS V14.01,2013-04-27 10:25:00,
2013-04-27 06:26:00,51.0,48.8,30.24,SSW,210,0.0,0.0,92,0.01,,---,0.06,VWS V14.01,2013-04-27 10:26:00,
2013-04-27 06:27:00,51.0,48.8,30.24,SSW,210,0.0,0.0,92,0.01,,---,0.06,VWS V14.01,2013-04-27 10:27:00,
2013-04-27 06:28:00,51.0,48.8,30.24,SSW,210,0.0,0.0,92,0.01,,---,0.06,VWS V14.01,2013-04-27 10:28:00,
2013-04-27 06:29:00,51.0,48.8,30.24,SSW,210,0.0,0.0,92,0.01,,---,0.06,VWS V14.01,2013-04-27 10:29:00,
2013-04-27 06:30:00,51.0,48.8,30.23,SSW,210,0.0,0.0,92,0.01,,---,0.06,VWS V14.01,2013-04-27 10:30:00,
2013-04-27 06:31:00,51.0,48.8,30.23,SSW,210,0.0,0.0,92,0.01,,---,0.06,VWS V14.01,2013-04-27 10:31:00,
2013-04-27 06:32:00,51.0,48.8,30.23,SSW,210,0.0,0.0,92,0.01,,---,0.06,VWS V14.01,2013-04-27 10:32:00,
2013-04-27 06:33:00,51.0,48.8,30.23,SSW,210,0.0,0.0,92,0.01,,---,0.06,VWS V14.01,2013-04-27 10:33:00,
2013-04-27 06:34:00,51.0,48.8,30.23,SSW,210,0.0,0.0,92,0.01,,---,0.06,VWS V14.01,2013-04-27 10:34:00,
2013-04-27 06:35:00,51.0,48.8,30.23,SSW,210,0.0,0.0,92,0.01,,---,0.06,VWS V14.01,2013-04-27 10:35:00,
2013-04-27 06:36:00,51.0,48.8,30.23,SSW,210,0.0,0.0,92,0.01,,---,0.06,VWS V14.01,2013-04-27 10:36:00,
2013-04-27 06:37:00,51.0,48.8,30.23,SSW,210,0.0,0.0,92,0.01,,---,0.06,VWS V14.01,2013-04-27 10:37:00,
2013-04-27 06:38:00,51.0,48.8,30.23,SSW,210,0.0,0.0,92,0.01,,---,0.06,VWS V14.01,2013-04-27 10:38:00,
2013-04-27 06:39:00,51.0,48.8,30.23,SSW,210,0.0,0.0,92,0.01,,---,0.06,VWS V14.01,2013-04-27 10:39:00,
2013-04-27 06:40:00,51.0,48.8,30.23,SSW,210,0.0,0.0,92,0.02,,---,0.07,VWS V14.01,2013-04-27 10:40:00,
2013-04-27 06:41:00,50.8,48.6,30.23,SSW,210,0.0,0.0,92,0.02,,---,0.07,VWS V14.01,2013-04-27 10:41:00,
2013-04-27 06:42:00,50.8,48.6,30.23,SSW,210,0.0,0.0,92,0.02,,---,0.07,VWS V14.01,2013-04-27 10:42:00,
2013-04-27 06:43:00,50.8,48.6,30.23,SSW,210,0.0,0.0,92,0.02,,---,0.07,VWS V14.01,2013-04-27 10:43:00,
2013-04-27 06:44:00,50.8,48.6,30.23,SSW,210,0.0,0.0,92,0.02,,---,0.07,VWS V14.01,2013-04-27 10:44:00,
2013-04-27 06:45:00,50.8,48.6,30.23,SSW,210,0.0,0.0,92,0.02,,---,0.07,VWS V14.01,2013-04-27 10:45:00,
2013-04-27 06:46:00,50.8,48.6,30.23,SSW,210,0.0,0.0,92,0.02,,---,0.07,VWS V14.01,2013-04-27 10:46:00,
2013-04-27 06:47:00,50.8,48.6,30.23,SSW,210,0.0,0.0,92,0.02,,---,0.07,VWS V14.01,2013-04-27 10:47:00,
2013-04-27 06:48:00,50.8,48.6,30.23,SSW,210,0.0,0.0,92,0.02,,---,0.07,VWS V14.01,2013-04-27 10:48:00,
2013-04-27 06:49:00,50.8,48.8,30.23,SSW,210,0.0,0.0,93,0.02,,---,0.07,VWS V14.01,2013-04-27 10:49:00,
2013-04-27 06:50:00,50.8,48.8,30.23,SSW,210,0.0,0.0,93,0.02,,---,0.07,VWS V14.01,2013-04-27 10:50:00,
2013-04-27 06:51:00,50.8,48.8,30.23,SSW,210,0.0,0.0,93,0.01,,---,0.07,VWS V14.01,2013-04-27 10:51:00,
2013-04-27 06:52:00,50.8,48.8,30.23,SSW,210,0.0,0.0,93,0.01,,---,0.07,VWS V14.01,2013-04-27 10:52:00,
2013-04-27 06:53:00,50.8,48.8,30.23,SSW,210,0.0,0.0,93,0.01,,---,0.07,VWS V14.01,2013-04-27 10:53:00,
2013-04-27 06:54:00,50.8,48.8,30.23,SSW,210,0.0,0.0,93,0.01,,---,0.07,VWS V14.01,2013-04-27 10:54:00,
2013-04-27 06:55:00,50.8,48.8,30.23,SSW,210,0.0,0.0,93,0.01,,---,0.07,VWS V14.01,2013-04-27 10:55:00,
2013-04-27 06:56:00,50.8,48.8,30.23,SSW,210,0.0,0.0,93,0.01,,---,0.07,VWS V14.01,2013-04-27 10:56:00,
2013-04-27 06:57:00,50.8,48.8,30.23,SSW,210,0.0,0.0,93,0.01,,---,0.07,VWS V14.01,2013-04-27 10:57:00,
2013-04-27 06:58:00,50.8,48.8,30.23,SSW,210,0.0,0.0,93,0.01,,---,0.07,VWS V14.01,2013-04-27 10:58:00,
2013-04-27 06:59:00,50.8,48.8,30.23,SSW,210,0.0,0.0,93,0.01,,---,0.07,VWS V14.01,2013-04-27 10:59:00,
2013-04-27 07:00:00,50.8,48.8,30.24,SSW,210,0.0,0.0,93,0.01,,---,0.07,VWS V14.01,2013-04-27 11:00:00,
2013-04-27 07:01:00,50.8,48.8,30.24,SSW,210,0.0,0.0,93,0.01,,---,0.07,VWS V14.01,2013-04-27 11:01:00,
2013-04-27 07:02:00,50.8,48.8,30.24,SSW,210,0.0,0.0,93,0.01,,---,0.07,VWS V14.01,2013-04-27 11:02:00,
2013-04-27 07:03:00,50.8,48.8,30.24,SSW,210,0.0,0.0,93,0.01,,---,0.07,VWS V14.01,2013-04-27 11:03:00,
2013-04-27 07:04:00,50.8,48.8,30.24,SSW,210,0.0,0.0,93,0.01,,---,0.07,VWS V14.01,2013-04-27 11:04:00,
2013-04-27 07:05:00,50.8,48.8,30.24,SSW,210,0.0,0.0,93,0.01,,---,0.07,VWS V14.01,2013-04-27 11:05:00,
2013-04-27 07:06:00,50.8,48.8,30.24,SSW,210,0.0,0.0,93,0.01,,---,0.07,VWS V14.01,2013-04-27 11:06:00,
2013-04-27 07:07:00,50.8,48.8,30.24,SSW,210,0.0,0.0,93,0.01,,---,0.07,VWS V14.01,2013-04-27 11:07:00,
2013-04-27 07:08:00,50.8,48.8,30.24,SSW,210,0.0,0.0,93,0.01,,---,0.07,VWS V14.01,2013-04-27 11:08:00,
2013-04-27 07:09:00,50.8,48.8,30.24,SSW,210,0.0,0.0,93,0.01,,---,0.07,VWS V14.01,2013-04-27 11:09:00,
2013-04-27 07:10:00,50.8,48.8,30.24,SSW,210,0.0,0.0,93,0.01,,---,0.07,VWS V14.01,2013-04-27 11:10:00,
2013-04-27 07:11:00,50.8,48.8,30.24,SSW,210,0.0,0.0,93,0.01,,---,0.07,VWS V14.01,2013-04-27 11:11:00,
2013-04-27 07:12:00,50.8,48.8,30.24,SSW,210,0.0,0.0,93,0.01,,---,0.07,VWS V14.01,2013-04-27 11:12:00,
2013-04-27 07:13:00,50.7,48.8,30.24,SSW,210,0.0,0.0,93,0.01,,---,0.07,VWS V14.01,2013-04-27 11:13:00,
2013-04-27 07:14:00,50.7,48.8,30.24,SSW,210,0.0,0.0,93,0.01,,---,0.07,VWS V14.01,2013-04-27 11:14:00,
2013-04-27 07:15:00,50.7,48.8,30.22,SSW,210,0.0,0.0,93,0.01,,---,0.07,VWS V14.01,2013-04-27 11:15:00,
2013-04-27 07:16:00,50.7,48.8,30.22,SSW,196,0.0,0.0,93,0.01,,---,0.07,VWS V14.01,2013-04-27 11:16:00,
2013-04-27 07:17:00,50.7,48.8,30.22,South,169,0.0,0.0,93,0.01,,---,0.07,VWS V14.01,2013-04-27 11:17:00,
2013-04-27 07:18:00,50.7,48.8,30.22,SE,137,2.0,2.0,93,0.01,,---,0.07,VWS V14.01,2013-04-27 11:18:00,
2013-04-27 07:19:00,50.7,48.8,30.22,SE,137,0.0,3.0,93,0.01,,---,0.07,VWS V14.01,2013-04-27 11:19:00,
2013-04-27 07:20:00,50.5,48.6,30.22,ESE,106,3.0,3.0,93,0.01,,---,0.07,VWS V14.01,2013-04-27 11:20:00,
2013-04-27 07:21:00,50.5,48.6,30.22,ESE,106,0.0,3.0,93,0.01,,---,0.07,VWS V14.01,2013-04-27 11:21:00,
2013-04-27 07:22:00,50.5,48.6,30.22,ESE,106,0.0,3.0,93,0.01,,---,0.07,VWS V14.01,2013-04-27 11:22:00,
2013-04-27 07:23:00,50.4,48.5,30.22,ESE,106,0.0,3.0,93,0.01,,---,0.07,VWS V14.01,2013-04-27 11:23:00,
2013-04-27 07:24:00,50.4,48.5,30.22,ESE,106,0.0,3.0,93,0.01,,---,0.07,VWS V14.01,2013-04-27 11:24:00,
2013-04-27 07:25:00,50.4,48.5,30.22,ESE,106,0.0,3.0,93,0.01,,---,0.07,VWS V14.01,2013-04-27 11:25:00,
2013-04-27 07:26:00,50.4,48.5,30.22,ESE,106,0.0,3.0,93,0.01,,---,0.07,VWS V14.01,2013-04-27 11:26:00,
2013-04-27 07:27:00,50.4,48.5,30.22,ESE,106,0.0,3.0,93,0.01,,---,0.07,VWS V14.01,2013-04-27 11:27:00,
2013-04-27 07:28:00,50.4,48.5,30.22,ESE,106,0.0,3.0,93,0.01,,---,0.07,VWS V14.01,2013-04-27 11:28:00,
2013-04-27 07:29:00,50.4,48.5,30.22,ESE,106,0.0,3.0,93,0.01,,---,0.07,VWS V14.01,2013-04-27 11:29:00,
2013-04-27 07:30:00,50.4,48.5,30.23,ESE,106,0.0,3.0,93,0.01,,---,0.07,VWS V14.01,2013-04-27 11:30:00,
2013-04-27 07:31:00,50.4,48.5,30.23,ESE,106,0.0,0.0,93,0.01,,---,0.07,VWS V14.01,2013-04-27 11:31:00,
2013-04-27 07:32:00,50.4,48.5,30.23,ESE,106,0.0,0.0,93,0.01,,---,0.07,VWS V14.01,2013-04-27 11:32:00,
2013-04-27 07:33:00,50.4,48.5,30.23,ESE,106,0.0,0.0,93,0.01,,---,0.07,VWS V14.01,2013-04-27 11:33:00,
2013-04-27 07:34:00,50.4,48.5,30.23,ESE,106,0.0,0.0,93,0.01,,---,0.07,VWS V14.01,2013-04-27 11:34:00,
2013-04-27 07:35:00,50.2,48.3,30.23,ESE,106,0.0,0.0,93,0.01,,---,0.07,VWS V14.01,2013-04-27 11:35:00,
2013-04-27 07:36:00,50.2,48.3,30.23,ESE,106,0.0,2.0,93,0.01,,---,0.07,VWS V14.01,2013-04-27 11:36:00,
2013-04-27 07:37:00,50.2,48.3,30.23,ESE,106,0.0,2.0,93,0.01,,---,0.07,VWS V14.01,2013-04-27 11:37:00,
2013-04-27 07:38:00,50.2,48.3,30.23,ESE,106,1.0,3.0,93,0.01,,---,0.07,VWS V14.01,2013-04-27 11:38:00,
2013-04-27 07:39:00,50.2,48.3,30.23,ESE,106,0.0,3.0,93,0.01,,---,0.07,VWS V14.01,2013-04-27 11:39:00,
2013-04-27 07:40:00,50.2,48.3,30.23,ESE,106,0.0,3.0,93,0.01,,---,0.07,VWS V14.01,2013-04-27 11:40:00,
2013-04-27 07:41:00,50.2,48.3,30.23,ESE,106,0.0,0.0,93,0.00,,---,0.07,VWS V14.01,2013-04-27 11:41:00,
2013-04-27 07:42:00,50.1,48.2,30.23,ESE,106,0.0,0.0,93,0.00,,---,0.07,VWS V14.01,2013-04-27 11:42:00,
2013-04-27 07:43:00,50.1,48.2,30.23,ESE,106,0.0,0.0,93,0.00,,---,0.07,VWS V14.01,2013-04-27 11:43:00,
2013-04-27 07:44:00,50.1,48.2,30.24,ESE,106,0.0,0.0,93,0.00,,---,0.07,VWS V14.01,2013-04-27 11:44:00,
2013-04-27 07:45:00,50.1,48.2,30.24,ESE,106,0.0,0.0,93,0.00,,---,0.07,VWS V14.01,2013-04-27 11:45:00,
2013-04-27 07:46:00,50.1,48.2,30.24,ESE,106,0.0,0.0,93,0.00,,---,0.07,VWS V14.01,2013-04-27 11:46:00,
2013-04-27 07:47:00,50.1,48.2,30.24,ESE,106,0.0,0.0,93,0.00,,---,0.07,VWS V14.01,2013-04-27 11:47:00,
2013-04-27 07:48:00,50.1,48.2,30.24,ESE,106,0.0,0.0,93,0.00,,---,0.07,VWS V14.01,2013-04-27 11:48:00,
2013-04-27 07:49:00,50.1,48.2,30.24,ESE,106,0.0,0.0,93,0.00,,---,0.07,VWS V14.01,2013-04-27 11:49:00,
2013-04-27 07:50:00,50.1,48.2,30.24,ESE,106,0.0,0.0,93,0.00,,---,0.07,VWS V14.01,2013-04-27 11:50:00,
2013-04-27 07:51:00,50.1,48.2,30.24,ESE,106,0.0,0.0,93,0.00,,---,0.07,VWS V14.01,2013-04-27 11:51:00,
2013-04-27 07:52:00,50.1,48.2,30.24,ESE,106,0.0,0.0,93,0.00,,---,0.07,VWS V14.01,2013-04-27 11:52:00,
2013-04-27 07:53:00,49.9,48.0,30.24,ESE,106,0.0,0.0,93,0.00,,---,0.07,VWS V14.01,2013-04-27 11:53:00,
2013-04-27 07:54:00,49.9,48.0,30.24,ESE,106,0.0,0.0,93,0.00,,---,0.07,VWS V14.01,2013-04-27 11:54:00,
2013-04-27 07:55:00,49.9,48.0,30.24,ESE,106,0.0,0.0,93,0.00,,---,0.07,VWS V14.01,2013-04-27 11:55:00,
2013-04-27 07:56:00,49.9,48.0,30.24,ESE,106,0.0,0.0,93,0.00,,---,0.07,VWS V14.01,2013-04-27 11:56:00,
2013-04-27 07:57:00,49.9,48.0,30.24,ESE,106,0.0,0.0,93,0.00,,---,0.07,VWS V14.01,2013-04-27 11:57:00,
2013-04-27 07:58:00,49.9,48.0,30.24,ESE,106,0.0,0.0,93,0.00,,---,0.07,VWS V14.01,2013-04-27 11:58:00,
2013-04-27 07:59:00,49.9,48.0,30.24,ESE,106,0.0,0.0,93,0.00,,---,0.07,VWS V14.01,2013-04-27 11:59:00,
2013-04-27 08:00:00,49.9,48.0,30.23,ESE,106,0.0,0.0,93,0.01,,---,0.08,VWS V14.01,2013-04-27 12:00:00,
2013-04-27 08:01:00,49.9,48.0,30.23,ESE,106,0.0,0.0,93,0.01,,---,0.08,VWS V14.01,2013-04-27 12:01:00,
2013-04-27 08:02:00,49.9,48.0,30.23,ESE,106,0.0,0.0,93,0.01,,---,0.08,VWS V14.01,2013-04-27 12:02:00,
2013-04-27 08:03:00,49.9,48.0,30.23,ESE,106,0.0,0.0,93,0.01,,---,0.08,VWS V14.01,2013-04-27 12:03:00,
2013-04-27 08:04:00,49.9,48.0,30.23,ESE,106,0.0,0.0,93,0.01,,---,0.08,VWS V14.01,2013-04-27 12:04:00,
2013-04-27 08:05:00,49.9,48.0,30.23,ESE,106,0.0,1.0,93,0.01,,---,0.08,VWS V14.01,2013-04-27 12:05:00,
2013-04-27 08:06:00,49.9,48.0,30.23,ESE,106,0.0,1.0,93,0.01,,---,0.08,VWS V14.01,2013-04-27 12:06:00,
2013-04-27 08:07:00,49.9,48.0,30.23,ESE,106,0.0,1.0,93,0.01,,---,0.08,VWS V14.01,2013-04-27 12:07:00,
2013-04-27 08:08:00,49.9,48.0,30.23,ESE,106,0.0,1.0,93,0.01,,---,0.08,VWS V14.01,2013-04-27 12:08:00,
2013-04-27 08:09:00,49.9,48.0,30.23,ESE,106,0.0,1.0,93,0.01,,---,0.08,VWS V14.01,2013-04-27 12:09:00,
2013-04-27 08:10:00,49.9,48.0,30.23,ESE,106,0.0,1.0,93,0.01,,---,0.08,VWS V14.01,2013-04-27 12:10:00,
2013-04-27 08:11:00,49.9,48.0,30.23,ESE,106,0.0,0.0,93,0.01,,---,0.08,VWS V14.01,2013-04-27 12:11:00,
2013-04-27 08:12:00,49.9,48.0,30.23,ESE,106,0.0,0.0,93,0.01,,---,0.08,VWS V14.01,2013-04-27 12:12:00,
2013-04-27 08:13:00,49.8,47.9,30.23,ESE,106,0.0,0.0,93,0.01,,---,0.08,VWS V14.01,2013-04-27 12:13:00,
2013-04-27 08:14:00,49.8,47.9,30.23,ESE,106,0.0,0.0,93,0.01,,---,0.08,VWS V14.01,2013-04-27 12:14:00,
2013-04-27 08:15:00,49.8,47.9,30.22,ESE,106,0.0,0.0,93,0.01,,---,0.08,VWS V14.01,2013-04-27 12:15:00,
2013-04-27 08:16:00,49.8,47.9,30.22,ESE,106,0.0,0.0,93,0.01,,---,0.08,VWS V14.01,2013-04-27 12:16:00,
2013-04-27 08:17:00,49.8,47.9,30.22,ESE,106,0.0,0.0,93,0.01,,---,0.08,VWS V14.01,2013-04-27 12:17:00,
2013-04-27 08:18:00,49.8,47.9,30.22,ESE,106,0.0,0.0,93,0.01,,---,0.08,VWS V14.01,2013-04-27 12:18:00,
2013-04-27 08:19:00,49.8,47.9,30.22,ESE,106,0.0,2.0,93,0.01,,---,0.08,VWS V14.01,2013-04-27 12:19:00,
2013-04-27 08:20:00,49.8,47.9,30.22,ESE,106,0.0,2.0,93,0.01,,---,0.08,VWS V14.01,2013-04-27 12:20:00,
2013-04-27 08:21:00,49.8,47.9,30.22,ESE,106,0.0,0.0,93,0.01,,---,0.08,VWS V14.01,2013-04-27 12:21:00,
2013-04-27 08:22:00,49.8,47.9,30.22,ESE,106,0.0,0.0,93,0.01,,---,0.08,VWS V14.01,2013-04-27 12:22:00,
2013-04-27 08:23:00,49.8,47.9,30.22,ESE,106,0.0,0.0,93,0.01,,---,0.08,VWS V14.01,2013-04-27 12:23:00,
2013-04-27 08:24:00,49.8,47.9,30.22,ESE,106,0.0,0.0,93,0.01,,---,0.08,VWS V14.01,2013-04-27 12:24:00,
2013-04-27 08:25:00,49.8,47.9,30.22,ESE,106,0.0,0.0,93,0.01,,---,0.08,VWS V14.01,2013-04-27 12:25:00,
2013-04-27 08:26:00,49.8,47.9,30.22,ESE,106,0.0,0.0,93,0.01,,---,0.08,VWS V14.01,2013-04-27 12:26:00,
2013-04-27 08:27:00,49.8,47.9,30.22,ESE,106,0.0,0.0,93,0.01,,---,0.08,VWS V14.01,2013-04-27 12:27:00,
2013-04-27 08:28:00,49.8,47.9,30.22,ESE,106,0.0,0.0,93,0.01,,---,0.08,VWS V14.01,2013-04-27 12:28:00,
2013-04-27 08:29:00,49.8,47.9,30.22,ESE,106,0.0,0.0,93,0.01,,---,0.08,VWS V14.01,2013-04-27 12:29:00,
2013-04-27 08:30:00,49.8,47.9,30.23,ESE,106,0.0,0.0,93,0.01,,---,0.08,VWS V14.01,2013-04-27 12:30:00,
2013-04-27 08:31:00,49.8,47.9,30.23,ESE,106,0.0,0.0,93,0.01,,---,0.08,VWS V14.01,2013-04-27 12:31:00,
2013-04-27 08:32:00,49.8,47.9,30.23,ESE,106,0.0,0.0,93,0.01,,---,0.08,VWS V14.01,2013-04-27 12:32:00,
2013-04-27 08:33:00,49.8,47.9,30.23,ESE,106,0.0,0.0,93,0.01,,---,0.08,VWS V14.01,2013-04-27 12:33:00,
2013-04-27 08:34:00,49.8,47.9,30.23,ESE,106,0.0,0.0,93,0.01,,---,0.08,VWS V14.01,2013-04-27 12:34:00,
2013-04-27 08:35:00,49.6,47.7,30.23,ESE,106,0.0,0.0,93,0.01,,---,0.08,VWS V14.01,2013-04-27 12:35:00,
2013-04-27 08:36:00,49.6,47.7,30.23,ESE,106,0.0,0.0,93,0.01,,---,0.08,VWS V14.01,2013-04-27 12:36:00,
2013-04-27 08:37:00,49.6,47.7,30.23,ESE,106,0.0,0.0,93,0.01,,---,0.08,VWS V14.01,2013-04-27 12:37:00,
2013-04-27 08:38:00,49.6,47.7,30.23,ESE,106,0.0,0.0,93,0.01,,---,0.08,VWS V14.01,2013-04-27 12:38:00,
2013-04-27 08:39:00,49.6,47.7,30.23,ESE,106,0.0,0.0,93,0.01,,---,0.08,VWS V14.01,2013-04-27 12:39:00,
2013-04-27 08:40:00,49.6,47.7,30.23,ESE,106,0.0,0.0,93,0.01,,---,0.08,VWS V14.01,2013-04-27 12:40:00,
2013-04-27 08:41:00,49.6,47.7,30.23,ESE,106,0.0,0.0,93,0.01,,---,0.08,VWS V14.01,2013-04-27 12:41:00,
2013-04-27 08:42:00,49.6,47.7,30.23,ESE,106,0.0,0.0,93,0.01,,---,0.08,VWS V14.01,2013-04-27 12:42:00,
2013-04-27 08:43:00,49.6,47.7,30.23,ESE,106,0.0,0.0,93,0.01,,---,0.08,VWS V14.01,2013-04-27 12:43:00,
2013-04-27 08:44:00,49.6,47.7,30.23,ESE,106,0.0,0.0,93,0.01,,---,0.08,VWS V14.01,2013-04-27 12:44:00,
2013-04-27 08:45:00,49.6,47.7,30.22,ESE,106,0.0,0.0,93,0.01,,---,0.08,VWS V14.01,2013-04-27 12:45:00,
2013-04-27 08:46:00,49.6,47.7,30.22,ESE,106,2.0,2.0,93,0.01,,---,0.08,VWS V14.01,2013-04-27 12:46:00,
2013-04-27 08:47:00,49.6,47.7,30.22,ESE,106,1.0,5.0,93,0.01,,---,0.08,VWS V14.01,2013-04-27 12:47:00,
2013-04-27 08:48:00,49.6,47.7,30.22,ESE,106,0.0,5.0,93,0.01,,---,0.08,VWS V14.01,2013-04-27 12:48:00,
2013-04-27 08:49:00,49.6,47.7,30.22,ESE,106,0.0,5.0,93,0.01,,---,0.08,VWS V14.01,2013-04-27 12:49:00,
2013-04-27 08:50:00,49.6,47.7,30.22,ESE,106,0.0,5.0,93,0.01,,---,0.08,VWS V14.01,2013-04-27 12:50:00,
2013-04-27 08:51:00,49.6,47.7,30.22,ESE,106,0.0,0.0,93,0.01,,---,0.08,VWS V14.01,2013-04-27 12:51:00,
2013-04-27 08:52:00,49.6,47.7,30.22,ESE,106,0.0,0.0,93,0.01,,---,0.08,VWS V14.01,2013-04-27 12:52:00,
2013-04-27 08:53:00,49.6,47.7,30.22,East,91,0.0,3.0,93,0.01,,---,0.08,VWS V14.01,2013-04-27 12:53:00,
2013-04-27 08:54:00,49.6,47.7,30.22,East,91,0.0,3.0,93,0.01,,---,0.08,VWS V14.01,2013-04-27 12:54:00,
2013-04-27 08:55:00,49.6,47.7,30.22,East,91,2.0,3.0,93,0.01,,---,0.08,VWS V14.01,2013-04-27 12:55:00,
2013-04-27 08:56:00,49.5,47.6,30.22,East,91,0.0,3.0,93,0.01,,---,0.08,VWS V14.01,2013-04-27 12:56:00,
2013-04-27 08:57:00,49.5,47.6,30.22,East,91,0.0,3.0,93,0.01,,---,0.08,VWS V14.01,2013-04-27 12:57:00,
2013-04-27 08:58:00,49.5,47.6,30.22,East,91,0.0,3.0,93,0.01,,---,0.08,VWS V14.01,2013-04-27 12:58:00,
2013-04-27 08:59:00,49.5,47.6,30.22,East,91,0.0,3.0,93,0.01,,---,0.08,VWS V14.01,2013-04-27 12:59:00,
2013-04-27 09:00:00,49.5,47.6,30.21,East,91,0.0,3.0,93,0.01,,---,0.08,VWS V14.01,2013-04-27 13:00:00,
2013-04-27 09:01:00,49.5,47.6,30.21,East,91,0.0,0.0,93,0.00,,---,0.08,VWS V14.01,2013-04-27 13:01:00,
2013-04-27 09:02:00,49.5,47.6,30.21,East,91,0.0,0.0,93,0.00,,---,0.08,VWS V14.01,2013-04-27 13:02:00,
2013-04-27 09:03:00,49.5,47.6,30.21,East,91,0.0,0.0,93,0.00,,---,0.08,VWS V14.01,2013-04-27 13:03:00,
2013-04-27 09:04:00,49.5,47.6,30.21,East,91,0.0,0.0,93,0.00,,---,0.08,VWS V14.01,2013-04-27 13:04:00,
2013-04-27 09:05:00,49.5,47.6,30.21,East,91,0.0,0.0,93,0.00,,---,0.09,VWS V14.01,2013-04-27 13:05:00,
2013-04-27 09:06:00,49.5,47.6,30.21,East,91,0.0,0.0,93,0.01,,---,0.09,VWS V14.01,2013-04-27 13:06:00,
2013-04-27 09:07:00,49.5,47.8,30.21,East,91,0.0,0.0,94,0.01,,---,0.09,VWS V14.01,2013-04-27 13:07:00,
2013-04-27 09:08:00,49.5,47.6,30.21,East,91,0.0,0.0,93,0.01,,---,0.09,VWS V14.01,2013-04-27 13:08:00,
2013-04-27 09:09:00,49.5,47.8,30.21,East,91,0.0,0.0,94,0.01,,---,0.09,VWS V14.01,2013-04-27 13:09:00,
2013-04-27 09:10:00,49.5,47.8,30.21,East,91,0.0,0.0,94,0.01,,---,0.09,VWS V14.01,2013-04-27 13:10:00,
2013-04-27 09:11:00,49.5,47.8,30.21,East,91,0.0,0.0,94,0.01,,---,0.09,VWS V14.01,2013-04-27 13:11:00,
2013-04-27 09:12:00,49.5,47.6,30.21,East,91,0.0,0.0,93,0.01,,---,0.09,VWS V14.01,2013-04-27 13:12:00,
2013-04-27 09:13:00,49.5,47.6,30.21,East,91,0.0,0.0,93,0.01,,---,0.09,VWS V14.01,2013-04-27 13:13:00,
2013-04-27 09:14:00,49.5,47.6,30.21,East,91,0.0,0.0,93,0.01,,---,0.09,VWS V14.01,2013-04-27 13:14:00,
2013-04-27 09:15:00,49.5,47.8,30.22,East,91,0.0,0.0,94,0.01,,---,0.09,VWS V14.01,2013-04-27 13:15:00,
2013-04-27 09:16:00,49.5,47.8,30.22,East,91,0.0,0.0,94,0.01,,---,0.09,VWS V14.01,2013-04-27 13:16:00,
2013-04-27 09:17:00,49.5,47.8,30.22,East,91,0.0,0.0,94,0.01,,---,0.09,VWS V14.01,2013-04-27 13:17:00,
2013-04-27 09:18:00,49.5,47.8,30.22,East,91,0.0,0.0,94,0.01,,---,0.09,VWS V14.01,2013-04-27 13:18:00,
2013-04-27 09:19:00,49.5,47.8,30.22,East,91,0.0,0.0,94,0.01,,---,0.09,VWS V14.01,2013-04-27 13:19:00,
2013-04-27 09:20:00,49.5,47.8,30.22,East,91,0.0,0.0,94,0.01,,---,0.09,VWS V14.01,2013-04-27 13:20:00,
2013-04-27 09:21:00,49.4,47.8,30.22,East,91,0.0,0.0,94,0.01,,---,0.09,VWS V14.01,2013-04-27 13:21:00,
2013-04-27 09:22:00,49.5,47.8,30.22,East,91,0.0,0.0,94,0.01,,---,0.09,VWS V14.01,2013-04-27 13:22:00,
2013-04-27 09:23:00,49.5,47.8,30.22,East,91,0.0,0.0,94,0.01,,---,0.09,VWS V14.01,2013-04-27 13:23:00,
2013-04-27 09:24:00,49.5,47.8,30.22,East,91,0.0,0.0,94,0.01,,---,0.09,VWS V14.01,2013-04-27 13:24:00,
2013-04-27 09:25:00,49.5,47.8,30.22,East,91,0.0,0.0,94,0.01,,---,0.09,VWS V14.01,2013-04-27 13:25:00,
2013-04-27 09:26:00,49.5,47.8,30.22,East,91,0.0,0.0,94,0.01,,---,0.09,VWS V14.01,2013-04-27 13:26:00,
2013-04-27 09:27:00,49.5,47.8,30.22,East,91,0.0,0.0,94,0.01,,---,0.09,VWS V14.01,2013-04-27 13:27:00,
2013-04-27 09:28:00,49.5,47.8,30.22,East,91,0.0,0.0,94,0.01,,---,0.09,VWS V14.01,2013-04-27 13:28:00,
2013-04-27 09:29:00,49.5,47.8,30.22,East,91,0.0,0.0,94,0.01,,---,0.09,VWS V14.01,2013-04-27 13:29:00,
2013-04-27 09:30:00,49.5,47.8,30.21,East,91,0.0,0.0,94,0.01,,---,0.09,VWS V14.01,2013-04-27 13:30:00,
2013-04-27 09:31:00,49.5,47.8,30.21,East,91,0.0,0.0,94,0.01,,---,0.09,VWS V14.01,2013-04-27 13:31:00,
2013-04-27 09:32:00,49.5,47.8,30.21,East,91,0.0,0.0,94,0.01,,---,0.09,VWS V14.01,2013-04-27 13:32:00,
2013-04-27 09:33:00,49.5,47.8,30.21,East,91,0.0,0.0,94,0.01,,---,0.09,VWS V14.01,2013-04-27 13:33:00,
2013-04-27 09:34:00,49.5,47.8,30.21,East,91,0.0,0.0,94,0.01,,---,0.09,VWS V14.01,2013-04-27 13:34:00,
2013-04-27 09:35:00,49.5,47.8,30.21,East,91,0.0,0.0,94,0.01,,---,0.09,VWS V14.01,2013-04-27 13:35:00,
2013-04-27 09:36:00,49.5,47.8,30.21,East,91,0.0,0.0,94,0.01,,---,0.09,VWS V14.01,2013-04-27 13:36:00,
2013-04-27 09:37:00,49.5,47.8,30.21,East,91,0.0,0.0,94,0.01,,---,0.09,VWS V14.01,2013-04-27 13:37:00,
2013-04-27 09:38:00,49.5,47.8,30.21,East,91,0.0,0.0,94,0.01,,---,0.09,VWS V14.01,2013-04-27 13:38:00,
2013-04-27 09:39:00,49.5,47.8,30.21,East,91,0.0,0.0,94,0.01,,---,0.09,VWS V14.01,2013-04-27 13:39:00,
2013-04-27 09:40:00,49.5,47.8,30.21,East,91,0.0,0.0,94,0.01,,---,0.09,VWS V14.01,2013-04-27 13:40:00,
2013-04-27 09:41:00,49.5,47.8,30.21,East,91,0.0,0.0,94,0.01,,---,0.09,VWS V14.01,2013-04-27 13:41:00,
2013-04-27 09:42:00,49.5,47.8,30.21,East,91,0.0,0.0,94,0.01,,---,0.09,VWS V14.01,2013-04-27 13:42:00,
2013-04-27 09:43:00,49.5,47.8,30.21,East,91,0.0,0.0,94,0.01,,---,0.09,VWS V14.01,2013-04-27 13:43:00,
2013-04-27 09:44:00,49.5,47.8,30.21,East,91,0.0,0.0,94,0.01,,---,0.09,VWS V14.01,2013-04-27 13:44:00,
2013-04-27 09:45:00,49.5,47.8,30.21,East,91,0.0,0.0,94,0.01,,---,0.09,VWS V14.01,2013-04-27 13:45:00,
2013-04-27 09:46:00,49.5,47.8,30.21,East,91,0.0,0.0,94,0.01,,---,0.09,VWS V14.01,2013-04-27 13:46:00,
2013-04-27 09:47:00,49.5,47.8,30.21,East,91,0.0,0.0,94,0.01,,---,0.09,VWS V14.01,2013-04-27 13:47:00,
2013-04-27 09:48:00,49.5,47.8,30.21,East,91,0.0,0.0,94,0.01,,---,0.09,VWS V14.01,2013-04-27 13:48:00,
2013-04-27 09:49:00,49.5,47.8,30.21,East,91,0.0,0.0,94,0.01,,---,0.09,VWS V14.01,2013-04-27 13:49:00,
2013-04-27 09:50:00,49.4,47.8,30.21,East,91,0.0,0.0,94,0.01,,---,0.09,VWS V14.01,2013-04-27 13:50:00,
2013-04-27 09:51:00,49.4,47.8,30.21,East,91,0.0,0.0,94,0.01,,---,0.09,VWS V14.01,2013-04-27 13:51:00,
2013-04-27 09:52:00,49.4,47.8,30.21,East,91,0.0,0.0,94,0.01,,---,0.09,VWS V14.01,2013-04-27 13:52:00,
2013-04-27 09:53:00,49.4,47.8,30.21,East,91,0.0,0.0,94,0.01,,---,0.09,VWS V14.01,2013-04-27 13:53:00,
2013-04-27 09:54:00,49.4,47.8,30.21,East,91,0.0,0.0,94,0.01,,---,0.09,VWS V14.01,2013-04-27 13:54:00,
2013-04-27 09:55:00,49.4,47.8,30.21,East,91,0.0,0.0,94,0.01,,---,0.09,VWS V14.01,2013-04-27 13:55:00,
2013-04-27 09:56:00,49.4,47.8,30.21,East,91,0.0,0.0,94,0.01,,---,0.09,VWS V14.01,2013-04-27 13:56:00,
2013-04-27 09:57:00,49.4,47.8,30.21,East,91,0.0,0.0,94,0.01,,---,0.09,VWS V14.01,2013-04-27 13:57:00,
2013-04-27 09:58:00,49.4,47.8,30.21,East,91,0.0,0.0,94,0.01,,---,0.09,VWS V14.01,2013-04-27 13:58:00,
2013-04-27 09:59:00,49.4,47.8,30.21,East,91,0.0,0.0,94,0.01,,---,0.09,VWS V14.01,2013-04-27 13:59:00,
2013-04-27 10:00:00,49.4,47.8,30.22,East,91,0.0,0.0,94,0.01,,---,0.09,VWS V14.01,2013-04-27 14:00:00,
2013-04-27 10:01:00,49.4,47.8,30.22,East,91,0.0,0.0,94,0.01,,---,0.09,VWS V14.01,2013-04-27 14:01:00,
2013-04-27 10:02:00,49.4,47.8,30.22,East,91,0.0,0.0,94,0.01,,---,0.09,VWS V14.01,2013-04-27 14:02:00,
2013-04-27 10:03:00,49.4,47.8,30.22,East,91,0.0,0.0,94,0.01,,---,0.09,VWS V14.01,2013-04-27 14:03:00,
2013-04-27 10:04:00,49.4,47.8,30.22,East,91,0.0,0.0,94,0.01,,---,0.09,VWS V14.01,2013-04-27 14:04:00,
2013-04-27 10:05:00,49.4,47.8,30.22,East,91,0.0,0.0,94,0.01,,---,0.09,VWS V14.01,2013-04-27 14:05:00,
2013-04-27 10:06:00,49.4,47.8,30.22,East,91,0.0,0.0,94,0.01,,---,0.09,VWS V14.01,2013-04-27 14:06:00,
2013-04-27 10:07:00,49.4,47.8,30.22,East,91,0.0,0.0,94,0.01,,---,0.09,VWS V14.01,2013-04-27 14:07:00,
2013-04-27 10:08:00,49.4,47.8,30.22,East,91,0.0,0.0,94,0.01,,---,0.09,VWS V14.01,2013-04-27 14:08:00,
2013-04-27 10:09:00,49.4,47.8,30.22,East,91,0.0,0.0,94,0.01,,---,0.09,VWS V14.01,2013-04-27 14:09:00,
2013-04-27 10:10:00,49.4,47.8,30.22,East,91,0.0,0.0,94,0.01,,---,0.09,VWS V14.01,2013-04-27 14:10:00,
2013-04-27 10:11:00,49.4,47.8,30.22,East,91,0.0,0.0,94,0.00,,---,0.09,VWS V14.01,2013-04-27 14:11:00,
2013-04-27 10:12:00,49.4,47.8,30.22,East,91,0.0,0.0,94,0.00,,---,0.09,VWS V14.01,2013-04-27 14:12:00,
2013-04-27 10:13:00,49.4,47.8,30.22,East,91,0.0,0.0,94,0.00,,---,0.09,VWS V14.01,2013-04-27 14:13:00,
2013-04-27 10:14:00,49.4,47.8,30.22,East,91,0.0,0.0,94,0.00,,---,0.09,VWS V14.01,2013-04-27 14:14:00,
2013-04-27 10:15:00,49.4,47.8,30.21,East,86,0.0,0.0,94,0.00,,---,0.09,VWS V14.01,2013-04-27 14:15:00,
2013-04-27 10:16:00,49.4,47.8,30.21,East,91,0.0,0.0,94,0.00,,---,0.09,VWS V14.01,2013-04-27 14:16:00,
2013-04-27 10:17:00,49.4,47.8,30.21,East,91,0.0,0.0,94,0.00,,---,0.09,VWS V14.01,2013-04-27 14:17:00,
2013-04-27 10:18:00,49.4,47.8,30.21,East,91,0.0,0.0,94,0.00,,---,0.09,VWS V14.01,2013-04-27 14:18:00,
2013-04-27 10:19:00,49.4,47.8,30.21,East,91,0.0,0.0,94,0.00,,---,0.09,VWS V14.01,2013-04-27 14:19:00,
2013-04-27 10:20:00,49.4,47.8,30.21,East,91,0.0,0.0,94,0.00,,---,0.09,VWS V14.01,2013-04-27 14:20:00,
2013-04-27 10:21:00,49.4,47.8,30.21,East,91,0.0,0.0,94,0.00,,---,0.09,VWS V14.01,2013-04-27 14:21:00,
2013-04-27 10:22:00,49.4,47.8,30.21,East,91,0.0,0.0,94,0.00,,---,0.09,VWS V14.01,2013-04-27 14:22:00,
2013-04-27 10:23:00,49.4,47.8,30.21,East,91,0.0,0.0,94,0.00,,---,0.09,VWS V14.01,2013-04-27 14:23:00,
2013-04-27 10:24:00,49.4,47.8,30.21,East,91,0.0,0.0,94,0.00,,---,0.09,VWS V14.01,2013-04-27 14:24:00,
2013-04-27 10:25:00,49.2,47.5,30.21,East,91,0.0,0.0,94,0.00,,---,0.09,VWS V14.01,2013-04-27 14:25:00,
2013-04-27 10:26:00,49.2,47.5,30.21,East,91,0.0,0.0,94,0.00,,---,0.09,VWS V14.01,2013-04-27 14:26:00,
2013-04-27 10:27:00,49.2,47.5,30.21,East,91,0.0,0.0,94,0.00,,---,0.09,VWS V14.01,2013-04-27 14:27:00,
2013-04-27 10:28:00,49.2,47.5,30.21,East,91,0.0,0.0,94,0.00,,---,0.09,VWS V14.01,2013-04-27 14:28:00,
2013-04-27 10:29:00,49.2,47.5,30.21,East,91,0.0,0.0,94,0.00,,---,0.09,VWS V14.01,2013-04-27 14:29:00,
2013-04-27 10:30:00,49.2,47.5,30.20,East,91,0.0,0.0,94,0.00,,---,0.09,VWS V14.01,2013-04-27 14:30:00,
2013-04-27 10:31:00,49.1,47.5,30.20,East,91,0.0,0.0,94,0.00,,---,0.09,VWS V14.01,2013-04-27 14:31:00,
2013-04-27 10:32:00,49.1,47.5,30.20,East,91,0.0,0.0,94,0.00,,---,0.09,VWS V14.01,2013-04-27 14:32:00,
2013-04-27 10:33:00,49.1,47.5,30.20,East,91,0.0,0.0,94,0.00,,---,0.09,VWS V14.01,2013-04-27 14:33:00,
2013-04-27 10:34:00,49.1,47.5,30.20,East,91,0.0,0.0,94,0.00,,---,0.09,VWS V14.01,2013-04-27 14:34:00,
2013-04-27 10:35:00,49.1,47.5,30.20,East,91,0.0,0.0,94,0.00,,---,0.09,VWS V14.01,2013-04-27 14:35:00,
2013-04-27 10:36:00,48.9,47.2,30.20,East,91,0.0,0.0,94,0.00,,---,0.09,VWS V14.01,2013-04-27 14:36:00,
2013-04-27 10:37:00,48.9,47.2,30.20,East,91,0.0,0.0,94,0.00,,---,0.09,VWS V14.01,2013-04-27 14:37:00,
2013-04-27 10:38:00,48.9,47.2,30.20,East,91,0.0,0.0,94,0.00,,---,0.09,VWS V14.01,2013-04-27 14:38:00,
2013-04-27 10:39:00,48.9,47.2,30.20,East,91,0.0,0.0,94,0.00,,---,0.09,VWS V14.01,2013-04-27 14:39:00,
2013-04-27 10:40:00,48.8,47.2,30.20,East,91,0.0,0.0,94,0.00,,---,0.09,VWS V14.01,2013-04-27 14:40:00,
2013-04-27 10:41:00,48.8,47.2,30.20,East,91,0.0,0.0,94,0.00,,---,0.09,VWS V14.01,2013-04-27 14:41:00,
2013-04-27 10:42:00,48.8,47.2,30.20,East,91,0.0,0.0,94,0.00,,---,0.09,VWS V14.01,2013-04-27 14:42:00,
2013-04-27 10:43:00,48.8,47.2,30.20,East,91,0.0,0.0,94,0.00,,---,0.09,VWS V14.01,2013-04-27 14:43:00,
2013-04-27 10:44:00,48.8,47.2,30.20,East,91,0.0,0.0,94,0.00,,---,0.09,VWS V14.01,2013-04-27 14:44:00,
2013-04-27 10:45:00,48.6,47.0,30.20,East,91,0.0,0.0,94,0.00,,---,0.09,VWS V14.01,2013-04-27 14:45:00,
2013-04-27 10:46:00,48.6,47.0,30.20,East,91,0.0,0.0,94,0.00,,---,0.09,VWS V14.01,2013-04-27 14:46:00,
2013-04-27 10:47:00,48.6,47.0,30.20,East,91,0.0,0.0,94,0.00,,---,0.09,VWS V14.01,2013-04-27 14:47:00,
2013-04-27 10:48:00,48.6,47.0,30.20,East,91,0.0,0.0,94,0.00,,---,0.09,VWS V14.01,2013-04-27 14:48:00,
2013-04-27 10:49:00,48.6,47.0,30.20,East,91,0.0,0.0,94,0.00,,---,0.09,VWS V14.01,2013-04-27 14:49:00,
2013-04-27 10:50:00,48.6,47.0,30.20,East,91,0.0,0.0,94,0.00,,---,0.09,VWS V14.01,2013-04-27 14:50:00,
2013-04-27 10:51:00,48.6,47.0,30.20,East,91,0.0,0.0,94,0.00,,---,0.09,VWS V14.01,2013-04-27 14:51:00,
2013-04-27 10:52:00,48.6,47.0,30.20,East,91,0.0,0.0,94,0.00,,---,0.09,VWS V14.01,2013-04-27 14:52:00,
2013-04-27 10:53:00,48.6,47.0,30.20,East,91,0.0,0.0,94,0.00,,---,0.09,VWS V14.01,2013-04-27 14:53:00,
2013-04-27 10:54:00,48.5,46.9,30.20,East,91,0.0,0.0,94,0.00,,---,0.09,VWS V14.01,2013-04-27 14:54:00,
2013-04-27 10:55:00,48.5,46.9,30.20,East,91,0.0,0.0,94,0.00,,---,0.09,VWS V14.01,2013-04-27 14:55:00,
2013-04-27 10:56:00,48.5,46.9,30.20,East,91,0.0,0.0,94,0.00,,---,0.09,VWS V14.01,2013-04-27 14:56:00,
2013-04-27 10:57:00,48.5,46.9,30.20,East,91,0.0,0.0,94,0.00,,---,0.09,VWS V14.01,2013-04-27 14:57:00,
2013-04-27 10:58:00,48.5,46.9,30.20,East,91,0.0,0.0,94,0.00,,---,0.09,VWS V14.01,2013-04-27 14:58:00,
2013-04-27 10:59:00,48.5,46.9,30.20,East,91,0.0,0.0,94,0.00,,---,0.09,VWS V14.01,2013-04-27 14:59:00,
2013-04-27 11:00:00,48.5,46.9,30.20,East,91,0.0,0.0,94,0.00,,---,0.09,VWS V14.01,2013-04-27 15:00:00,
2013-04-27 11:01:00,48.5,46.9,30.20,East,91,0.0,0.0,94,0.00,,---,0.09,VWS V14.01,2013-04-27 15:01:00,
2013-04-27 11:02:00,48.5,46.9,30.20,East,91,0.0,0.0,94,0.00,,---,0.09,VWS V14.01,2013-04-27 15:02:00,
2013-04-27 11:03:00,48.5,46.9,30.20,East,91,0.0,0.0,94,0.00,,---,0.09,VWS V14.01,2013-04-27 15:03:00,
2013-04-27 11:04:00,48.5,46.9,30.20,East,91,0.0,0.0,94,0.01,,---,0.10,VWS V14.01,2013-04-27 15:04:00,
2013-04-27 11:05:00,48.5,46.9,30.20,East,86,0.0,0.0,94,0.01,,---,0.10,VWS V14.01,2013-04-27 15:05:00,
2013-04-27 11:06:00,48.3,46.7,30.20,SSE,162,0.0,0.0,94,0.01,,---,0.10,VWS V14.01,2013-04-27 15:06:00,
2013-04-27 11:07:00,48.3,46.7,30.20,SSE,162,0.0,0.0,94,0.01,,---,0.10,VWS V14.01,2013-04-27 15:07:00,
2013-04-27 11:08:00,48.3,46.7,30.20,SSE,162,0.0,0.0,94,0.01,,---,0.10,VWS V14.01,2013-04-27 15:08:00,
2013-04-27 11:09:00,48.3,46.7,30.20,WSW,250,0.0,0.0,94,0.01,,---,0.10,VWS V14.01,2013-04-27 15:09:00,
2013-04-27 11:10:00,48.3,46.7,30.20,WSW,250,0.0,0.0,94,0.01,,---,0.10,VWS V14.01,2013-04-27 15:10:00,
2013-04-27 11:11:00,48.3,46.7,30.20,WSW,250,0.0,0.0,94,0.01,,---,0.10,VWS V14.01,2013-04-27 15:11:00,
2013-04-27 11:12:00,48.3,46.7,30.20,WSW,250,0.0,0.0,94,0.01,,---,0.10,VWS V14.01,2013-04-27 15:12:00,
2013-04-27 11:13:00,48.3,46.7,30.20,WSW,250,0.0,0.0,94,0.01,,---,0.10,VWS V14.01,2013-04-27 15:13:00,
2013-04-27 11:14:00,48.3,46.7,30.20,WSW,250,0.0,0.0,94,0.01,,---,0.10,VWS V14.01,2013-04-27 15:14:00,
2013-04-27 11:15:00,48.3,46.7,30.20,WSW,250,0.0,0.0,94,0.01,,---,0.10,VWS V14.01,2013-04-27 15:15:00,
2013-04-27 11:16:00,48.3,46.7,30.20,WSW,250,0.0,0.0,94,0.01,,---,0.10,VWS V14.01,2013-04-27 15:16:00,
2013-04-27 11:17:00,48.3,46.7,30.20,WSW,250,0.0,0.0,94,0.01,,---,0.10,VWS V14.01,2013-04-27 15:17:00,
2013-04-27 11:18:00,48.3,46.7,30.20,WSW,250,0.0,0.0,94,0.01,,---,0.10,VWS V14.01,2013-04-27 15:18:00,
2013-04-27 11:19:00,48.3,46.7,30.20,WSW,250,0.0,0.0,94,0.01,,---,0.10,VWS V14.01,2013-04-27 15:19:00,
2013-04-27 11:20:00,48.3,46.7,30.20,WSW,250,0.0,0.0,94,0.01,,---,0.10,VWS V14.01,2013-04-27 15:20:00,
2013-04-27 11:21:00,48.3,46.7,30.20,WSW,250,0.0,0.0,94,0.01,,---,0.10,VWS V14.01,2013-04-27 15:21:00,
2013-04-27 11:22:00,48.3,46.7,30.20,WSW,250,0.0,0.0,94,0.01,,---,0.10,VWS V14.01,2013-04-27 15:22:00,
2013-04-27 11:23:00,48.3,46.7,30.20,WSW,250,0.0,0.0,94,0.01,,---,0.10,VWS V14.01,2013-04-27 15:23:00,
2013-04-27 11:24:00,48.3,46.7,30.20,WSW,250,0.0,0.0,94,0.01,,---,0.10,VWS V14.01,2013-04-27 15:24:00,
2013-04-27 11:25:00,48.3,46.7,30.20,WSW,250,0.0,0.0,94,0.01,,---,0.10,VWS V14.01,2013-04-27 15:25:00,
2013-04-27 11:26:00,48.3,46.7,30.20,WSW,250,0.0,0.0,94,0.01,,---,0.10,VWS V14.01,2013-04-27 15:26:00,
2013-04-27 11:27:00,48.3,46.7,30.20,WSW,250,0.0,0.0,94,0.01,,---,0.10,VWS V14.01,2013-04-27 15:27:00,
2013-04-27 11:28:00,48.3,46.7,30.20,WSW,250,0.0,0.0,94,0.01,,---,0.10,VWS V14.01,2013-04-27 15:28:00,
2013-04-27 11:29:00,48.3,46.7,30.20,WSW,250,0.0,0.0,94,0.01,,---,0.10,VWS V14.01,2013-04-27 15:29:00,
2013-04-27 11:30:00,48.3,46.7,30.20,WSW,250,0.0,0.0,94,0.01,,---,0.10,VWS V14.01,2013-04-27 15:30:00,
2013-04-27 11:31:00,48.3,46.7,30.20,WSW,250,0.0,0.0,94,0.01,,---,0.10,VWS V14.01,2013-04-27 15:31:00,
2013-04-27 11:32:00,48.3,46.7,30.20,WSW,250,0.0,0.0,94,0.01,,---,0.10,VWS V14.01,2013-04-27 15:32:00,
2013-04-27 11:33:00,48.3,46.7,30.20,WSW,250,0.0,0.0,94,0.01,,---,0.10,VWS V14.01,2013-04-27 15:33:00,
2013-04-27 11:34:00,48.3,46.7,30.20,WSW,250,0.0,0.0,94,0.01,,---,0.10,VWS V14.01,2013-04-27 15:34:00,
2013-04-27 11:35:00,48.3,46.7,30.20,WSW,250,0.0,0.0,94,0.01,,---,0.10,VWS V14.01,2013-04-27 15:35:00,
2013-04-27 11:36:00,48.3,46.7,30.20,WSW,250,0.0,0.0,94,0.01,,---,0.10,VWS V14.01,2013-04-27 15:36:00,
2013-04-27 11:37:00,48.3,46.7,30.20,WSW,250,0.0,0.0,94,0.01,,---,0.10,VWS V14.01,2013-04-27 15:37:00,
2013-04-27 11:38:00,48.3,46.7,30.20,WSW,250,0.0,0.0,94,0.01,,---,0.10,VWS V14.01,2013-04-27 15:38:00,
2013-04-27 11:39:00,48.3,46.7,30.20,WSW,250,0.0,0.0,94,0.01,,---,0.10,VWS V14.01,2013-04-27 15:39:00,
2013-04-27 11:40:00,48.2,46.6,30.20,WSW,250,0.0,0.0,94,0.01,,---,0.10,VWS V14.01,2013-04-27 15:40:00,
2013-04-27 11:41:00,48.2,46.6,30.20,WSW,250,0.0,0.0,94,0.01,,---,0.10,VWS V14.01,2013-04-27 15:41:00,
2013-04-27 11:42:00,48.2,46.6,30.20,WSW,250,0.0,0.0,94,0.01,,---,0.10,VWS V14.01,2013-04-27 15:42:00,
2013-04-27 11:43:00,48.2,46.6,30.20,WSW,250,0.0,0.0,94,0.01,,---,0.10,VWS V14.01,2013-04-27 15:43:00,
2013-04-27 11:44:00,48.2,46.6,30.20,WSW,250,0.0,0.0,94,0.01,,---,0.10,VWS V14.01,2013-04-27 15:44:00,
2013-04-27 11:45:00,48.2,46.6,30.19,WSW,250,0.0,0.0,94,0.01,,---,0.10,VWS V14.01,2013-04-27 15:45:00,
2013-04-27 11:46:00,48.2,46.6,30.19,WSW,250,0.0,0.0,94,0.01,,---,0.10,VWS V14.01,2013-04-27 15:46:00,
2013-04-27 11:47:00,48.2,46.6,30.19,WSW,250,0.0,0.0,94,0.01,,---,0.10,VWS V14.01,2013-04-27 15:47:00,
2013-04-27 11:48:00,48.2,46.6,30.19,WSW,250,0.0,0.0,94,0.01,,---,0.10,VWS V14.01,2013-04-27 15:48:00,
2013-04-27 11:49:00,48.2,46.6,30.19,WSW,250,0.0,0.0,94,0.01,,---,0.10,VWS V14.01,2013-04-27 15:49:00,
2013-04-27 11:50:00,48.2,46.6,30.19,WSW,250,0.0,0.0,94,0.01,,---,0.10,VWS V14.01,2013-04-27 15:50:00,
2013-04-27 11:51:00,48.2,46.6,30.19,WSW,250,0.0,0.0,94,0.01,,---,0.10,VWS V14.01,2013-04-27 15:51:00,
2013-04-27 11:52:00,48.2,46.6,30.19,WSW,250,0.0,0.0,94,0.01,,---,0.10,VWS V14.01,2013-04-27 15:52:00,
2013-04-27 11:53:00,48.2,46.6,30.19,WSW,250,0.0,0.0,94,0.01,,---,0.10,VWS V14.01,2013-04-27 15:53:00,
2013-04-27 11:54:00,48.2,46.6,30.19,WSW,250,0.0,0.0,94,0.01,,---,0.10,VWS V14.01,2013-04-27 15:54:00,
2013-04-27 11:55:00,48.2,46.6,30.19,WSW,250,0.0,0.0,94,0.01,,---,0.10,VWS V14.01,2013-04-27 15:55:00,
2013-04-27 11:56:00,48.2,46.6,30.19,WSW,250,0.0,0.0,94,0.01,,---,0.10,VWS V14.01,2013-04-27 15:56:00,
2013-04-27 11:57:00,48.2,46.6,30.19,WSW,250,0.0,0.0,94,0.01,,---,0.10,VWS V14.01,2013-04-27 15:57:00,
2013-04-27 11:58:00,48.2,46.6,30.19,WSW,250,0.0,0.0,94,0.01,,---,0.10,VWS V14.01,2013-04-27 15:58:00,
2013-04-27 11:59:00,48.2,46.6,30.19,WSW,250,0.0,0.0,94,0.01,,---,0.10,VWS V14.01,2013-04-27 15:59:00,
2013-04-27 12:00:00,48.3,46.7,30.20,WSW,250,0.0,0.0,94,0.01,,---,0.10,VWS V14.01,2013-04-27 16:00:00,
2013-04-27 12:01:00,48.3,46.7,30.20,WSW,250,0.0,0.0,94,0.01,,---,0.10,VWS V14.01,2013-04-27 16:01:00,
2013-04-27 12:02:00,48.3,46.7,30.20,WSW,250,0.0,0.0,94,0.01,,---,0.10,VWS V14.01,2013-04-27 16:02:00,
2013-04-27 12:03:00,48.3,46.7,30.20,WSW,250,0.0,0.0,94,0.01,,---,0.10,VWS V14.01,2013-04-27 16:03:00,
2013-04-27 12:04:00,48.3,46.7,30.20,WSW,250,0.0,0.0,94,0.01,,---,0.10,VWS V14.01,2013-04-27 16:04:00,
2013-04-27 12:05:00,48.3,46.7,30.20,WSW,250,0.0,0.0,94,0.01,,---,0.10,VWS V14.01,2013-04-27 16:05:00,
2013-04-27 12:06:00,48.3,46.7,30.20,WSW,250,0.0,0.0,94,0.01,,---,0.10,VWS V14.01,2013-04-27 16:06:00,
2013-04-27 12:07:00,48.3,46.7,30.20,WSW,250,0.0,0.0,94,0.01,,---,0.10,VWS V14.01,2013-04-27 16:07:00,
2013-04-27 12:08:00,48.3,46.7,30.20,WSW,250,0.0,0.0,94,0.01,,---,0.10,VWS V14.01,2013-04-27 16:08:00,
2013-04-27 12:09:00,48.3,46.7,30.20,WSW,250,0.0,0.0,94,0.01,,---,0.10,VWS V14.01,2013-04-27 16:09:00,
2013-04-27 12:10:00,48.3,46.7,30.20,WSW,250,0.0,0.0,94,0.01,,---,0.10,VWS V14.01,2013-04-27 16:10:00,
2013-04-27 12:11:00,48.3,46.7,30.20,WSW,250,0.0,0.0,94,0.00,,---,0.10,VWS V14.01,2013-04-27 16:11:00,
2013-04-27 12:12:00,48.3,46.7,30.20,WSW,250,0.0,0.0,94,0.00,,---,0.10,VWS V14.01,2013-04-27 16:12:00,
2013-04-27 12:13:00,48.3,46.7,30.20,WSW,250,0.0,0.0,94,0.00,,---,0.10,VWS V14.01,2013-04-27 16:13:00,
2013-04-27 12:14:00,48.3,46.7,30.20,WSW,250,0.0,0.0,94,0.00,,---,0.10,VWS V14.01,2013-04-27 16:14:00,
2013-04-27 12:15:00,48.3,46.7,30.20,WSW,250,0.0,0.0,94,0.00,,---,0.10,VWS V14.01,2013-04-27 16:15:00,
2013-04-27 12:16:00,48.3,46.7,30.20,WSW,250,0.0,0.0,94,0.00,,---,0.10,VWS V14.01,2013-04-27 16:16:00,
2013-04-27 12:17:00,48.3,46.7,30.20,WSW,250,0.0,0.0,94,0.00,,---,0.10,VWS V14.01,2013-04-27 16:17:00,
2013-04-27 12:18:00,48.3,46.7,30.20,WSW,250,0.0,0.0,94,0.00,,---,0.10,VWS V14.01,2013-04-27 16:18:00,
2013-04-27 12:19:00,48.3,46.7,30.20,WSW,250,0.0,0.0,94,0.00,,---,0.10,VWS V14.01,2013-04-27 16:19:00,
2013-04-27 12:20:00,48.3,46.7,30.20,WSW,238,0.0,0.0,94,0.00,,---,0.10,VWS V14.01,2013-04-27 16:20:00,
2013-04-27 12:21:00,48.3,46.7,30.20,WSW,250,0.0,0.0,94,0.00,,---,0.10,VWS V14.01,2013-04-27 16:21:00,
2013-04-27 12:22:00,48.3,46.7,30.20,WSW,250,0.0,0.0,94,0.00,,---,0.10,VWS V14.01,2013-04-27 16:22:00,
2013-04-27 12:23:00,48.3,46.7,30.20,WSW,250,0.0,0.0,94,0.00,,---,0.10,VWS V14.01,2013-04-27 16:23:00,
2013-04-27 12:24:00,48.3,46.7,30.20,WSW,250,0.0,0.0,94,0.00,,---,0.10,VWS V14.01,2013-04-27 16:24:00,
2013-04-27 12:25:00,48.3,46.7,30.20,WSW,250,0.0,0.0,94,0.00,,---,0.10,VWS V14.01,2013-04-27 16:25:00,
2013-04-27 12:26:00,48.3,46.7,30.20,WSW,250,0.0,0.0,94,0.00,,---,0.10,VWS V14.01,2013-04-27 16:26:00,
2013-04-27 12:27:00,48.3,46.7,30.20,WSW,250,0.0,0.0,94,0.00,,---,0.10,VWS V14.01,2013-04-27 16:27:00,
2013-04-27 12:28:00,48.3,46.7,30.20,WSW,250,0.0,0.0,94,0.00,,---,0.10,VWS V14.01,2013-04-27 16:28:00,
2013-04-27 12:29:00,48.3,46.7,30.20,WSW,250,0.0,0.0,94,0.00,,---,0.10,VWS V14.01,2013-04-27 16:29:00,
2013-04-27 12:30:00,48.3,46.7,30.20,WSW,250,0.0,0.0,94,0.00,,---,0.10,VWS V14.01,2013-04-27 16:30:00,
2013-04-27 12:31:00,48.3,46.7,30.20,WSW,250,0.0,0.0,94,0.00,,---,0.10,VWS V14.01,2013-04-27 16:31:00,
2013-04-27 12:32:00,48.3,46.7,30.20,WSW,250,0.0,0.0,94,0.00,,---,0.10,VWS V14.01,2013-04-27 16:32:00,
2013-04-27 12:33:00,48.3,46.7,30.20,WSW,250,0.0,0.0,94,0.00,,---,0.10,VWS V14.01,2013-04-27 16:33:00,
2013-04-27 12:34:00,48.3,46.7,30.20,WSW,250,0.0,0.0,94,0.00,,---,0.10,VWS V14.01,2013-04-27 16:34:00,
2013-04-27 12:35:00,48.3,46.7,30.20,WSW,250,0.0,0.0,94,0.00,,---,0.10,VWS V14.01,2013-04-27 16:35:00,
2013-04-27 12:36:00,48.3,46.7,30.20,WSW,250,0.0,0.0,94,0.00,,---,0.10,VWS V14.01,2013-04-27 16:36:00,
2013-04-27 12:37:00,48.3,46.7,30.20,WSW,250,0.0,0.0,94,0.00,,---,0.10,VWS V14.01,2013-04-27 16:37:00,
2013-04-27 12:38:00,48.3,46.7,30.20,WSW,250,0.0,0.0,94,0.00,,---,0.10,VWS V14.01,2013-04-27 16:38:00,
2013-04-27 12:39:00,48.3,46.7,30.20,WSW,250,0.0,0.0,94,0.00,,---,0.10,VWS V14.01,2013-04-27 16:39:00,
2013-04-27 12:40:00,48.3,46.7,30.20,WSW,250,0.0,0.0,94,0.00,,---,0.10,VWS V14.01,2013-04-27 16:40:00,
2013-04-27 12:41:00,48.3,46.7,30.20,WSW,250,0.0,0.0,94,0.00,,---,0.10,VWS V14.01,2013-04-27 16:41:00,
2013-04-27 12:42:00,48.3,46.7,30.20,WSW,250,0.0,0.0,94,0.00,,---,0.10,VWS V14.01,2013-04-27 16:42:00,
2013-04-27 12:43:00,48.3,46.7,30.20,WSW,250,0.0,0.0,94,0.00,,---,0.10,VWS V14.01,2013-04-27 16:43:00,
2013-04-27 12:44:00,48.3,46.7,30.20,WSW,250,0.0,0.0,94,0.00,,---,0.10,VWS V14.01,2013-04-27 16:44:00,
2013-04-27 12:45:00,48.3,46.7,30.19,WSW,238,0.0,0.0,94,0.00,,---,0.10,VWS V14.01,2013-04-27 16:45:00,
2013-04-27 12:46:00,48.3,46.7,30.19,WSW,250,0.0,0.0,94,0.00,,---,0.10,VWS V14.01,2013-04-27 16:46:00,
2013-04-27 12:47:00,48.3,46.7,30.19,WSW,250,0.0,0.0,94,0.00,,---,0.10,VWS V14.01,2013-04-27 16:47:00,
2013-04-27 12:48:00,48.3,46.7,30.19,WSW,250,0.0,0.0,94,0.00,,---,0.10,VWS V14.01,2013-04-27 16:48:00,
2013-04-27 12:49:00,48.3,46.7,30.19,WSW,250,0.0,0.0,94,0.00,,---,0.10,VWS V14.01,2013-04-27 16:49:00,
2013-04-27 12:50:00,48.3,46.7,30.19,WSW,250,0.0,0.0,94,0.00,,---,0.10,VWS V14.01,2013-04-27 16:50:00,
2013-04-27 12:51:00,48.3,46.7,30.19,WSW,250,0.0,0.0,94,0.00,,---,0.10,VWS V14.01,2013-04-27 16:51:00,
2013-04-27 12:52:00,48.3,46.7,30.19,WSW,250,0.0,0.0,94,0.00,,---,0.10,VWS V14.01,2013-04-27 16:52:00,
2013-04-27 12:53:00,48.3,46.7,30.19,WSW,250,0.0,0.0,94,0.00,,---,0.10,VWS V14.01,2013-04-27 16:53:00,
2013-04-27 12:54:00,48.3,46.7,30.19,WSW,250,0.0,0.0,94,0.00,,---,0.10,VWS V14.01,2013-04-27 16:54:00,
2013-04-27 12:55:00,48.3,46.7,30.19,WSW,250,0.0,0.0,94,0.00,,---,0.10,VWS V14.01,2013-04-27 16:55:00,
2013-04-27 12:56:00,48.3,46.7,30.19,WSW,250,0.0,0.0,94,0.00,,---,0.10,VWS V14.01,2013-04-27 16:56:00,
2013-04-27 12:57:00,48.5,46.9,30.19,WSW,250,0.0,0.0,94,0.00,,---,0.10,VWS V14.01,2013-04-27 16:57:00,
2013-04-27 12:58:00,48.5,46.9,30.19,WSW,250,0.0,0.0,94,0.00,,---,0.10,VWS V14.01,2013-04-27 16:58:00,
2013-04-27 12:59:00,48.5,46.9,30.19,WNW,286,0.0,0.0,94,0.00,,---,0.10,VWS V14.01,2013-04-27 16:59:00,
2013-04-27 13:00:00,48.3,46.7,30.19,WNW,295,0.0,0.0,94,0.00,,---,0.10,VWS V14.01,2013-04-27 17:00:00,
2013-04-27 13:01:00,48.3,46.7,30.19,WNW,295,0.0,0.0,94,0.00,,---,0.10,VWS V14.01,2013-04-27 17:01:00,
2013-04-27 13:02:00,48.3,46.7,30.19,WNW,295,0.0,0.0,94,0.00,,---,0.10,VWS V14.01,2013-04-27 17:02:00,
2013-04-27 13:03:00,48.3,46.7,30.19,WNW,295,0.0,0.0,94,0.00,,---,0.10,VWS V14.01,2013-04-27 17:03:00,
2013-04-27 13:04:00,48.3,46.7,30.19,WNW,295,0.0,0.0,94,0.00,,---,0.10,VWS V14.01,2013-04-27 17:04:00,
2013-04-27 13:05:00,48.3,46.7,30.19,WNW,295,0.0,0.0,94,0.00,,---,0.10,VWS V14.01,2013-04-27 17:05:00,
2013-04-27 13:06:00,48.3,46.7,30.19,WNW,295,0.0,0.0,94,0.00,,---,0.10,VWS V14.01,2013-04-27 17:06:00,
2013-04-27 13:07:00,48.3,46.7,30.19,WNW,295,0.0,0.0,94,0.00,,---,0.10,VWS V14.01,2013-04-27 17:07:00,
2013-04-27 13:08:00,48.3,46.7,30.19,WNW,295,0.0,0.0,94,0.00,,---,0.10,VWS V14.01,2013-04-27 17:08:00,
2013-04-27 13:09:00,48.3,46.7,30.19,WNW,295,0.0,0.0,94,0.00,,---,0.10,VWS V14.01,2013-04-27 17:09:00,
2013-04-27 13:10:00,48.3,46.7,30.19,WNW,295,0.0,0.0,94,0.00,,---,0.10,VWS V14.01,2013-04-27 17:10:00,
2013-04-27 13:11:00,48.3,46.7,30.19,WNW,295,0.0,0.0,94,0.00,,---,0.10,VWS V14.01,2013-04-27 17:11:00,
2013-04-27 13:12:00,48.3,46.7,30.19,WNW,295,0.0,0.0,94,0.00,,---,0.10,VWS V14.01,2013-04-27 17:12:00,
2013-04-27 13:13:00,48.3,46.7,30.19,WNW,295,0.0,0.0,94,0.00,,---,0.10,VWS V14.01,2013-04-27 17:13:00,
2013-04-27 13:14:00,48.3,46.7,30.19,WNW,295,0.0,0.0,94,0.00,,---,0.10,VWS V14.01,2013-04-27 17:14:00,
2013-04-27 13:15:00,48.3,46.7,30.21,WNW,295,0.0,0.0,94,0.00,,---,0.10,VWS V14.01,2013-04-27 17:15:00,
2013-04-27 13:16:00,48.3,46.7,30.21,WNW,295,0.0,0.0,94,0.00,,---,0.10,VWS V14.01,2013-04-27 17:16:00,
2013-04-27 13:17:00,48.3,46.7,30.21,WNW,295,0.0,0.0,94,0.00,,---,0.10,VWS V14.01,2013-04-27 17:17:00,
2013-04-27 13:18:00,48.3,46.7,30.21,WNW,295,0.0,0.0,94,0.00,,---,0.10,VWS V14.01,2013-04-27 17:18:00,
2013-04-27 13:19:00,48.3,46.7,30.21,WNW,295,0.0,0.0,94,0.00,,---,0.10,VWS V14.01,2013-04-27 17:19:00,
2013-04-27 13:20:00,48.3,46.7,30.21,WNW,295,0.0,0.0,94,0.00,,---,0.10,VWS V14.01,2013-04-27 17:20:00,
2013-04-27 13:21:00,48.3,46.7,30.21,WNW,295,0.0,0.0,94,0.00,,---,0.10,VWS V14.01,2013-04-27 17:21:00,
2013-04-27 13:22:00,48.3,46.7,30.21,WNW,295,0.0,0.0,94,0.00,,---,0.10,VWS V14.01,2013-04-27 17:22:00,
2013-04-27 13:23:00,48.3,46.7,30.21,WNW,295,0.0,0.0,94,0.00,,---,0.10,VWS V14.01,2013-04-27 17:23:00,
2013-04-27 13:24:00,48.3,46.7,30.21,WNW,295,0.0,0.0,94,0.00,,---,0.10,VWS V14.01,2013-04-27 17:24:00,
2013-04-27 13:25:00,48.3,46.7,30.21,WNW,295,0.0,0.0,94,0.00,,---,0.10,VWS V14.01,2013-04-27 17:25:00,
2013-04-27 13:26:00,48.3,46.7,30.21,WNW,295,0.0,0.0,94,0.00,,---,0.10,VWS V14.01,2013-04-27 17:26:00,
2013-04-27 13:27:00,48.3,46.7,30.21,WNW,295,0.0,0.0,94,0.00,,---,0.10,VWS V14.01,2013-04-27 17:27:00,
2013-04-27 13:28:00,48.5,46.9,30.21,WNW,295,0.0,0.0,94,0.00,,---,0.10,VWS V14.01,2013-04-27 17:28:00,
2013-04-27 13:29:00,48.5,46.9,30.21,WNW,295,0.0,0.0,94,0.00,,---,0.10,VWS V14.01,2013-04-27 17:29:00,
2013-04-27 13:30:00,48.5,46.9,30.20,WNW,295,0.0,0.0,94,0.00,,---,0.10,VWS V14.01,2013-04-27 17:30:00,
2013-04-27 13:31:00,48.5,46.9,30.20,WNW,295,0.0,0.0,94,0.00,,---,0.10,VWS V14.01,2013-04-27 17:31:00,
2013-04-27 13:32:00,48.5,46.9,30.20,WNW,295,0.0,0.0,94,0.00,,---,0.10,VWS V14.01,2013-04-27 17:32:00,
2013-04-27 13:33:00,48.5,46.9,30.20,WNW,295,0.0,0.0,94,0.00,,---,0.10,VWS V14.01,2013-04-27 17:33:00,
2013-04-27 13:34:00,48.5,46.9,30.20,WNW,295,0.0,0.0,94,0.00,,---,0.10,VWS V14.01,2013-04-27 17:34:00,
2013-04-27 13:35:00,48.5,46.9,30.20,WNW,295,0.0,0.0,94,0.00,,---,0.10,VWS V14.01,2013-04-27 17:35:00,
2013-04-27 13:36:00,48.5,46.9,30.20,WNW,295,0.0,0.0,94,0.00,,---,0.10,VWS V14.01,2013-04-27 17:36:00,
2013-04-27 13:37:00,48.5,46.9,30.20,WNW,295,0.0,0.0,94,0.00,,---,0.10,VWS V14.01,2013-04-27 17:37:00,
2013-04-27 13:38:00,48.5,46.9,30.20,WNW,295,0.0,0.0,94,0.00,,---,0.10,VWS V14.01,2013-04-27 17:38:00,
2013-04-27 13:39:00,48.5,46.9,30.20,WNW,295,0.0,0.0,94,0.00,,---,0.10,VWS V14.01,2013-04-27 17:39:00,
2013-04-27 13:40:00,48.5,46.9,30.20,WNW,295,0.0,0.0,94,0.00,,---,0.10,VWS V14.01,2013-04-27 17:40:00,
2013-04-27 13:41:00,48.5,46.9,30.20,WNW,295,0.0,0.0,94,0.00,,---,0.10,VWS V14.01,2013-04-27 17:41:00,
2013-04-27 13:42:00,48.5,46.9,30.20,WNW,295,0.0,0.0,94,0.00,,---,0.10,VWS V14.01,2013-04-27 17:42:00,
2013-04-27 13:43:00,48.5,46.9,30.20,WNW,295,0.0,0.0,94,0.00,,---,0.10,VWS V14.01,2013-04-27 17:43:00,
2013-04-27 13:44:00,48.5,46.9,30.20,WNW,295,0.0,0.0,94,0.00,,---,0.10,VWS V14.01,2013-04-27 17:44:00,
2013-04-27 13:45:00,48.5,46.9,30.19,WNW,295,0.0,0.0,94,0.00,,---,0.10,VWS V14.01,2013-04-27 17:45:00,
2013-04-27 13:46:00,48.5,46.9,30.19,WNW,295,0.0,0.0,94,0.00,,---,0.10,VWS V14.01,2013-04-27 17:46:00,
2013-04-27 13:47:00,48.5,46.9,30.19,WNW,295,0.0,0.0,94,0.00,,---,0.10,VWS V14.01,2013-04-27 17:47:00,
2013-04-27 13:48:00,48.5,46.9,30.19,WNW,295,0.0,0.0,94,0.00,,---,0.10,VWS V14.01,2013-04-27 17:48:00,
2013-04-27 13:49:00,48.5,46.9,30.19,WNW,295,0.0,0.0,94,0.00,,---,0.10,VWS V14.01,2013-04-27 17:49:00,
2013-04-27 13:50:00,48.5,46.9,30.19,WNW,295,0.0,0.0,94,0.00,,---,0.10,VWS V14.01,2013-04-27 17:50:00,
2013-04-27 13:51:00,48.5,46.9,30.19,WNW,295,0.0,0.0,94,0.00,,---,0.10,VWS V14.01,2013-04-27 17:51:00,
2013-04-27 13:52:00,48.6,47.0,30.19,WNW,295,0.0,0.0,94,0.00,,---,0.10,VWS V14.01,2013-04-27 17:52:00,
2013-04-27 13:53:00,48.6,47.2,30.19,WNW,295,0.0,0.0,95,0.00,,---,0.10,VWS V14.01,2013-04-27 17:53:00,
2013-04-27 13:54:00,48.6,47.2,30.19,WNW,295,0.0,0.0,95,0.00,,---,0.10,VWS V14.01,2013-04-27 17:54:00,
2013-04-27 13:55:00,48.6,47.2,30.19,WNW,295,0.0,0.0,95,0.00,,---,0.10,VWS V14.01,2013-04-27 17:55:00,
2013-04-27 13:56:00,48.6,47.2,30.19,WNW,295,0.0,0.0,95,0.00,,---,0.10,VWS V14.01,2013-04-27 17:56:00,
2013-04-27 13:57:00,48.6,47.2,30.19,WNW,295,0.0,0.0,95,0.00,,---,0.10,VWS V14.01,2013-04-27 17:57:00,
2013-04-27 13:58:00,48.6,47.2,30.19,WNW,295,0.0,0.0,95,0.00,,---,0.10,VWS V14.01,2013-04-27 17:58:00,
2013-04-27 13:59:00,48.6,47.2,30.19,WNW,295,0.0,0.0,95,0.00,,---,0.10,VWS V14.01,2013-04-27 17:59:00,
2013-04-27 14:00:00,48.6,47.2,30.19,WNW,295,0.0,0.0,95,0.00,,---,0.10,VWS V14.01,2013-04-27 18:00:00,
2013-04-27 14:01:00,48.6,47.2,30.19,WNW,295,0.0,0.0,95,0.00,,---,0.10,VWS V14.01,2013-04-27 18:01:00,
2013-04-27 14:02:00,48.6,47.2,30.19,WNW,295,0.0,0.0,95,0.00,,---,0.10,VWS V14.01,2013-04-27 18:02:00,
2013-04-27 14:03:00,48.6,47.2,30.19,WNW,295,0.0,0.0,95,0.00,,---,0.10,VWS V14.01,2013-04-27 18:03:00,
2013-04-27 14:04:00,48.6,47.2,30.19,WNW,295,0.0,0.0,95,0.00,,---,0.10,VWS V14.01,2013-04-27 18:04:00,
2013-04-27 14:05:00,48.6,47.2,30.19,WNW,295,0.0,0.0,95,0.00,,---,0.10,VWS V14.01,2013-04-27 18:05:00,
2013-04-27 14:06:00,48.6,47.2,30.19,WNW,295,0.0,0.0,95,0.00,,---,0.10,VWS V14.01,2013-04-27 18:06:00,
2013-04-27 14:07:00,48.6,47.2,30.19,WNW,295,0.0,0.0,95,0.00,,---,0.10,VWS V14.01,2013-04-27 18:07:00,
2013-04-27 14:08:00,48.6,47.2,30.19,WNW,295,0.0,0.0,95,0.00,,---,0.10,VWS V14.01,2013-04-27 18:08:00,
2013-04-27 14:09:00,48.6,47.2,30.19,WNW,295,0.0,0.0,95,0.00,,---,0.10,VWS V14.01,2013-04-27 18:09:00,
2013-04-27 14:10:00,48.6,47.2,30.19,WNW,295,0.0,0.0,95,0.00,,---,0.10,VWS V14.01,2013-04-27 18:10:00,
2013-04-27 14:11:00,48.6,47.2,30.19,WNW,295,0.0,0.0,95,0.00,,---,0.10,VWS V14.01,2013-04-27 18:11:00,
2013-04-27 14:12:00,48.6,47.2,30.19,WNW,295,0.0,0.0,95,0.00,,---,0.10,VWS V14.01,2013-04-27 18:12:00,
2013-04-27 14:13:00,48.6,47.2,30.19,WNW,295,0.0,0.0,95,0.00,,---,0.10,VWS V14.01,2013-04-27 18:13:00,
2013-04-27 14:14:00,48.6,47.2,30.19,WNW,295,0.0,0.0,95,0.00,,---,0.10,VWS V14.01,2013-04-27 18:14:00,
2013-04-27 14:15:00,48.6,47.2,30.18,WNW,295,0.0,0.0,95,0.00,,---,0.10,VWS V14.01,2013-04-27 18:15:00,
2013-04-27 14:16:00,48.6,47.2,30.18,WNW,295,0.0,0.0,95,0.00,,---,0.10,VWS V14.01,2013-04-27 18:16:00,
2013-04-27 14:17:00,48.6,47.2,30.18,WNW,295,0.0,0.0,95,0.00,,---,0.10,VWS V14.01,2013-04-27 18:17:00,
2013-04-27 14:18:00,48.6,47.2,30.18,WNW,295,0.0,0.0,95,0.00,,---,0.10,VWS V14.01,2013-04-27 18:18:00,
2013-04-27 14:19:00,48.6,47.2,30.18,WNW,295,0.0,0.0,95,0.00,,---,0.10,VWS V14.01,2013-04-27 18:19:00,
2013-04-27 14:20:00,48.6,47.2,30.18,WNW,295,0.0,0.0,95,0.00,,---,0.10,VWS V14.01,2013-04-27 18:20:00,
2013-04-27 14:21:00,48.6,47.2,30.18,WNW,295,0.0,0.0,95,0.00,,---,0.10,VWS V14.01,2013-04-27 18:21:00,
2013-04-27 14:22:00,48.6,47.2,30.18,WNW,295,0.0,0.0,95,0.00,,---,0.10,VWS V14.01,2013-04-27 18:22:00,
2013-04-27 14:23:00,48.6,47.2,30.18,WNW,295,0.0,0.0,95,0.00,,---,0.10,VWS V14.01,2013-04-27 18:23:00,
2013-04-27 14:24:00,48.6,47.2,30.18,WNW,295,0.0,0.0,95,0.00,,---,0.10,VWS V14.01,2013-04-27 18:24:00,
2013-04-27 14:25:00,48.6,47.2,30.18,WNW,295,0.0,0.0,95,0.00,,---,0.10,VWS V14.01,2013-04-27 18:25:00,
2013-04-27 14:26:00,48.6,47.2,30.18,WNW,295,0.0,0.0,95,0.00,,---,0.10,VWS V14.01,2013-04-27 18:26:00,
2013-04-27 14:27:00,48.6,47.2,30.18,WNW,295,0.0,0.0,95,0.00,,---,0.10,VWS V14.01,2013-04-27 18:27:00,
2013-04-27 14:28:00,48.6,47.2,30.18,WNW,295,0.0,0.0,95,0.00,,---,0.10,VWS V14.01,2013-04-27 18:28:00,
2013-04-27 14:29:00,48.6,47.2,30.18,WNW,295,0.0,0.0,95,0.00,,---,0.10,VWS V14.01,2013-04-27 18:29:00,
2013-04-27 14:30:00,48.6,47.2,30.18,WNW,295,0.0,0.0,95,0.00,,---,0.10,VWS V14.01,2013-04-27 18:30:00,
2013-04-27 14:31:00,48.6,47.2,30.18,WNW,295,0.0,0.0,95,0.00,,---,0.10,VWS V14.01,2013-04-27 18:31:00,
2013-04-27 14:32:00,48.6,47.2,30.18,WNW,295,0.0,0.0,95,0.00,,---,0.10,VWS V14.01,2013-04-27 18:32:00,
2013-04-27 14:33:00,48.6,47.2,30.18,WNW,295,0.0,0.0,95,0.00,,---,0.10,VWS V14.01,2013-04-27 18:33:00,
2013-04-27 14:34:00,48.6,47.2,30.18,WNW,295,0.0,0.0,95,0.00,,---,0.10,VWS V14.01,2013-04-27 18:34:00,
2013-04-27 14:35:00,48.6,47.2,30.18,WNW,295,0.0,0.0,95,0.00,,---,0.10,VWS V14.01,2013-04-27 18:35:00,
2013-04-27 14:36:00,48.6,47.2,30.18,WNW,295,0.0,0.0,95,0.00,,---,0.10,VWS V14.01,2013-04-27 18:36:00,
2013-04-27 14:37:00,48.6,47.2,30.18,WNW,295,0.0,0.0,95,0.00,,---,0.10,VWS V14.01,2013-04-27 18:37:00,
2013-04-27 14:38:00,48.6,47.2,30.18,WNW,295,0.0,0.0,95,0.00,,---,0.10,VWS V14.01,2013-04-27 18:38:00,
2013-04-27 14:39:00,48.6,47.2,30.18,WNW,295,0.0,0.0,95,0.00,,---,0.10,VWS V14.01,2013-04-27 18:39:00,
2013-04-27 14:40:00,48.6,47.2,30.18,WNW,295,0.0,0.0,95,0.00,,---,0.10,VWS V14.01,2013-04-27 18:40:00,
2013-04-27 14:41:00,48.6,47.2,30.18,WNW,295,0.0,0.0,95,0.00,,---,0.10,VWS V14.01,2013-04-27 18:41:00,
2013-04-27 14:42:00,48.6,47.2,30.18,WNW,295,0.0,0.0,95,0.00,,---,0.10,VWS V14.01,2013-04-27 18:42:00,
2013-04-27 14:43:00,48.6,47.2,30.18,WNW,295,0.0,0.0,95,0.00,,---,0.10,VWS V14.01,2013-04-27 18:43:00,
2013-04-27 14:44:00,48.6,47.2,30.18,WNW,295,0.0,0.0,95,0.00,,---,0.10,VWS V14.01,2013-04-27 18:44:00,
2013-04-27 14:45:00,48.6,47.2,30.18,WNW,295,0.0,0.0,95,0.00,,---,0.10,VWS V14.01,2013-04-27 18:45:00,
2013-04-27 14:46:00,48.6,47.2,30.18,WNW,295,0.0,0.0,95,0.00,,---,0.10,VWS V14.01,2013-04-27 18:46:00,
2013-04-27 14:50:00,48.8,47.4,30.18,North,0,0.0,0.0,95,0.00,,---,0.10,VWS V14.01,2013-04-27 18:50:00,
2013-04-27 15:00:00,48.8,47.4,30.16,North,0,0.0,0.0,95,0.00,,---,0.10,VWS V14.01,2013-04-27 19:00:00,
2013-04-27 15:10:00,48.6,47.2,30.16,WNW,292,0.0,1.0,95,0.00,,---,0.10,VWS V14.01,2013-04-27 19:10:00,
2013-04-27 15:20:00,48.6,47.2,30.16,WNW,292,0.0,0.0,95,0.00,,---,0.10,VWS V14.01,2013-04-27 19:20:00,
2013-04-27 15:30:00,48.6,47.2,30.16,WNW,292,0.0,0.0,95,0.00,,---,0.10,VWS V14.01,2013-04-27 19:30:00,
2013-04-27 15:40:00,48.6,47.2,30.16,WNW,292,0.0,0.0,95,0.00,,---,0.10,VWS V14.01,2013-04-27 19:40:00,
2013-04-27 15:50:00,48.6,47.2,30.15,WNW,292,0.0,0.0,95,0.00,,---,0.10,VWS V14.01,2013-04-27 19:50:00,
2013-04-27 16:00:00,48.5,47.1,30.15,WNW,292,0.0,2.0,95,0.00,,---,0.10,VWS V14.01,2013-04-27 20:00:00,
2013-04-27 16:10:00,48.3,46.9,30.15,WNW,292,0.0,0.0,95,0.00,,---,0.10,VWS V14.01,2013-04-27 20:10:00,
2013-04-27 16:20:00,48.2,46.8,30.16,WNW,292,0.0,0.0,95,0.01,,---,0.11,VWS V14.01,2013-04-27 20:20:00,
2013-04-27 16:30:00,48.2,46.8,30.16,WNW,292,0.0,0.0,95,0.01,,---,0.11,VWS V14.01,2013-04-27 20:30:00,
2013-04-27 16:40:00,48.2,46.8,30.16,WNW,292,0.0,0.0,95,0.01,,---,0.11,VWS V14.01,2013-04-27 20:40:00,
2013-04-27 16:50:00,48.0,46.6,30.15,NNE,22,0.0,3.0,95,0.01,,---,0.11,VWS V14.01,2013-04-27 20:50:00,
2013-04-27 17:00:00,47.7,46.1,30.16,NNE,22,0.0,0.0,94,0.01,,---,0.11,VWS V14.01,2013-04-27 21:00:00,
2013-04-27 17:10:00,47.4,45.8,30.16,NNE,22,1.0,8.0,94,0.01,,---,0.11,VWS V14.01,2013-04-27 21:10:00,
2013-04-27 17:20:00,47.3,45.7,30.17,NE,45,0.0,1.0,94,0.01,,---,0.11,VWS V14.01,2013-04-27 21:20:00,
2013-04-27 17:30:00,46.7,45.1,30.15,NE,45,0.0,3.0,94,0.00,,---,0.11,VWS V14.01,2013-04-27 21:30:00,
2013-04-27 17:40:00,46.5,44.6,30.15,NE,45,0.0,0.0,93,0.00,,---,0.11,VWS V14.01,2013-04-27 21:40:00,
2013-04-27 17:50:00,46.4,44.5,30.14,NE,45,0.0,1.0,93,0.00,,---,0.11,VWS V14.01,2013-04-27 21:50:00,
2013-04-27 18:00:00,46.2,44.3,30.16,NE,45,0.0,5.0,93,0.00,,---,0.11,VWS V14.01,2013-04-27 22:00:00,
2013-04-27 18:10:00,46.1,43.9,30.16,NNE,22,1.0,6.0,92,0.00,,---,0.11,VWS V14.01,2013-04-27 22:10:00,
2013-04-27 18:20:00,46.2,44.0,30.15,NNE,22,0.0,0.0,92,0.00,,---,0.11,VWS V14.01,2013-04-27 22:20:00,
2013-04-27 18:30:00,46.2,44.0,30.14,NNE,22,0.0,0.0,92,0.00,,---,0.11,VWS V14.01,2013-04-27 22:30:00,
2013-04-27 18:40:00,46.2,44.0,30.14,NE,45,0.0,2.0,92,0.00,,---,0.11,VWS V14.01,2013-04-27 22:40:00,
2013-04-27 18:50:00,46.1,43.9,30.14,NE,45,0.0,5.0,92,0.00,,---,0.11,VWS V14.01,2013-04-27 22:50:00,
2013-04-27 19:00:00,45.8,43.3,30.15,NE,45,1.0,5.0,91,0.00,,---,0.11,VWS V14.01,2013-04-27 23:00:00,
2013-04-27 19:10:00,45.8,43.0,30.15,NNE,22,0.0,1.0,90,0.00,,---,0.11,VWS V14.01,2013-04-27 23:10:00,
2013-04-27 19:20:00,46.0,43.2,30.16,NNE,22,0.0,0.0,90,0.00,,---,0.11,VWS V14.01,2013-04-27 23:20:00,
2013-04-27 19:30:00,46.0,43.2,30.15,NNE,22,0.0,1.0,90,0.00,,---,0.11,VWS V14.01,2013-04-27 23:30:00,
2013-04-27 19:40:00,45.8,42.8,30.15,NNE,22,0.0,0.0,89,0.00,,---,0.11,VWS V14.01,2013-04-27 23:40:00,
2013-04-27 19:50:00,45.8,43.0,30.15,NNE,22,0.0,0.0,90,0.00,,---,0.11,VWS V14.01,2013-04-27 23:50:00,
2013-04-27 20:00:00,45.8,43.0,30.16,NNE,22,0.0,0.0,90,0.00,,---,0.11,VWS V14.01,2013-04-28 00:00:00,
2013-04-27 20:10:00,45.8,43.3,30.16,NNE,22,0.0,0.0,91,0.00,,---,0.11,VWS V14.01,2013-04-28 00:10:00,
2013-04-27 20:20:00,46.0,43.5,30.17,NNE,22,0.0,0.0,91,0.00,,---,0.11,VWS V14.01,2013-04-28 00:20:00,
2013-04-27 20:30:00,45.8,43.3,30.16,NNE,22,0.0,0.0,91,0.00,,---,0.11,VWS V14.01,2013-04-28 00:30:00,
2013-04-27 20:40:00,46.0,43.8,30.16,NNE,22,0.0,0.0,92,0.00,,---,0.11,VWS V14.01,2013-04-28 00:40:00,
2013-04-27 20:50:00,46.1,43.9,30.16,NNE,22,0.0,0.0,92,0.00,,---,0.11,VWS V14.01,2013-04-28 00:50:00,
2013-04-27 21:00:00,46.2,44.0,30.16,NNE,22,0.0,0.0,92,0.01,,---,0.12,VWS V14.01,2013-04-28 01:00:00,
2013-04-27 21:10:00,46.1,43.9,30.16,NNE,22,0.0,0.0,92,0.01,,---,0.12,VWS V14.01,2013-04-28 01:10:00,
2013-04-27 21:20:00,46.1,44.2,30.16,NNE,22,0.0,0.0,93,0.01,,---,0.12,VWS V14.01,2013-04-28 01:20:00,
2013-04-27 21:30:00,46.1,44.2,30.18,NNE,22,0.0,0.0,93,0.01,,---,0.12,VWS V14.01,2013-04-28 01:30:00,
2013-04-27 21:40:00,46.2,44.3,30.18,West,270,2.0,6.0,93,0.01,,---,0.12,VWS V14.01,2013-04-28 01:40:00,
2013-04-27 21:50:00,46.2,44.3,30.20,West,270,0.0,3.0,93,0.01,,---,0.12,VWS V14.01,2013-04-28 01:50:00,
2013-04-27 22:00:00,46.2,44.3,30.17,West,270,0.0,0.0,93,0.01,,---,0.12,VWS V14.01,2013-04-28 02:00:00,
2013-04-27 22:10:00,46.2,44.3,30.17,West,270,0.0,0.0,93,0.00,,---,0.12,VWS V14.01,2013-04-28 02:10:00,
2013-04-27 22:20:00,46.4,44.8,30.17,West,270,0.0,0.0,94,0.00,,---,0.12,VWS V14.01,2013-04-28 02:20:00,
2013-04-27 22:30:00,46.5,44.9,30.16,West,270,0.0,0.0,94,0.00,,---,0.12,VWS V14.01,2013-04-28 02:30:00,
2013-04-27 22:40:00,46.7,45.1,30.16,West,270,0.0,0.0,94,0.00,,---,0.12,VWS V14.01,2013-04-28 02:40:00,
2013-04-27 22:50:00,46.8,45.2,30.14,SSE,158,0.0,3.0,94,0.00,,---,0.12,VWS V14.01,2013-04-28 02:50:00,
2013-04-27 23:00:00,47.0,45.4,30.16,ESE,112,0.0,3.0,94,0.00,,---,0.12,VWS V14.01,2013-04-28 03:00:00,
2013-04-27 23:10:00,47.0,45.4,30.16,ESE,112,0.0,0.0,94,0.00,,---,0.12,VWS V14.01,2013-04-28 03:10:00,
2013-04-27 23:20:00,47.1,45.5,30.16,ESE,112,0.0,0.0,94,0.00,,---,0.12,VWS V14.01,2013-04-28 03:20:00,
2013-04-27 23:30:00,47.4,46.0,30.17,ESE,112,0.0,0.0,95,0.00,,---,0.12,VWS V14.01,2013-04-28 03:30:00,
2013-04-27 23:40:00,47.6,46.2,30.17,ESE,112,0.0,0.0,95,0.00,,---,0.12,VWS V14.01,2013-04-28 03:40:00,
2013-04-27 23:50:00,47.6,46.2,30.15,ESE,112,0.0,0.0,95,0.00,,---,0.12,VWS V14.01,2013-04-28 03:50:00,